Wetterdaten: Sonntag, 03.12.2017
Datum Zeit Temp. Aussen Temp. o. S. +5cm Feuchte Auss BlattFeu 1 Luftdruck Regen Sonnenschein Regendauer Solar Windben Empfang
03.12.2017 00:00 -0,5 C -0,6 C -1,1 C 98 % 4 lf 1025,9 hPa 0,0 l/m 0 min 0 min 0 W/m 6,8 km/h (2 Bft) 97,87 %
03.12.2017 00:02 -0,5 C -0,6 C -1,1 C 98 % 4 lf 1026,0 hPa 0,0 l/m 0 min 0 min 0 W/m 4,5 km/h (1 Bft) 13,33 %
03.12.2017 00:04 -0,5 C -0,6 C -1,1 C 98 % 4 lf 1025,9 hPa 0,0 l/m 0 min 0 min 0 W/m 4,5 km/h (1 Bft) 84,44 %
03.12.2017 00:07 -0,6 C -0,6 C -1,1 C 98 % 4 lf 1025,9 hPa 0,0 l/m 0 min 0 min 0 W/m 9,0 km/h (2 Bft) 100,00 %
03.12.2017 00:08 -0,5 C -0,6 C -1,1 C 98 % 4 lf 1025,9 hPa 0,0 l/m 0 min 0 min 0 W/m 6,8 km/h (2 Bft) 95,83 %
03.12.2017 00:10 -0,5 C -0,6 C -1,1 C 98 % 4 lf 1025,9 hPa 0,0 l/m 0 min 0 min 0 W/m 6,8 km/h (2 Bft) 97,87 %
03.12.2017 00:12 -0,5 C -0,6 C -1,1 C 98 % 4 lf 1025,9 hPa 0,0 l/m 0 min 0 min 0 W/m 9,0 km/h (2 Bft) 93,48 %
03.12.2017 00:14 -0,5 C -0,6 C -1,1 C 98 % 5 lf 1025,8 hPa 0,0 l/m 0 min 0 min 0 W/m 6,8 km/h (2 Bft) 97,87 %
03.12.2017 00:16 -0,5 C -0,6 C -1,1 C 98 % 6 lf 1025,8 hPa 0,0 l/m 0 min 0 min 0 W/m 6,8 km/h (2 Bft) 93,62 %
03.12.2017 00:18 -0,5 C -0,6 C -1,1 C 98 % 6 lf 1025,8 hPa 0,0 l/m 0 min 0 min 0 W/m 6,8 km/h (2 Bft) 97,87 %
03.12.2017 00:20 -0,5 C -0,6 C -1,1 C 98 % 6 lf 1025,8 hPa 0,0 l/m 0 min 0 min 0 W/m 6,8 km/h (2 Bft) 97,87 %
03.12.2017 00:22 -0,5 C -0,6 C -1,1 C 98 % 5 lf 1025,7 hPa 0,0 l/m 0 min 0 min 0 W/m 4,5 km/h (1 Bft) 97,87 %
03.12.2017 00:24 -0,5 C -0,6 C -1,1 C 98 % 5 lf 1025,7 hPa 0,0 l/m 0 min 0 min 0 W/m 9,0 km/h (2 Bft) 97,83 %
03.12.2017 00:26 -0,5 C -0,6 C -1,1 C 98 % 6 lf 1025,7 hPa 0,0 l/m 0 min 0 min 0 W/m 4,5 km/h (1 Bft) 93,62 %
03.12.2017 00:28 -0,4 C -0,6 C -1,1 C 98 % 7 lf 1025,7 hPa 0,0 l/m 0 min 0 min 0 W/m 6,8 km/h (2 Bft) 97,87 %
03.12.2017 00:30 -0,4 C -0,6 C -1,1 C 98 % 7 lf 1025,7 hPa 0,0 l/m 0 min 0 min 0 W/m 4,5 km/h (1 Bft) 97,87 %
03.12.2017 00:32 -0,4 C -0,6 C -1,1 C 98 % 7 lf 1025,7 hPa 0,0 l/m 0 min 0 min 0 W/m 4,5 km/h (1 Bft) 93,62 %
03.12.2017 00:34 -0,4 C -0,6 C -1,1 C 98 % 7 lf 1025,7 hPa 0,0 l/m 0 min 0 min 0 W/m 9,0 km/h (2 Bft) 97,87 %
03.12.2017 00:36 -0,4 C 0,0 C -1,1 C 98 % 7 lf 1025,7 hPa 0,0 l/m 0 min 0 min 0 W/m 6,8 km/h (2 Bft) 93,48 %
03.12.2017 00:38 -0,4 C 0,0 C -1,1 C 98 % 7 lf 1025,6 hPa 0,0 l/m 0 min 0 min 0 W/m 9,0 km/h (2 Bft) 97,87 %
03.12.2017 00:40 -0,4 C -0,6 C -1,1 C 98 % 7 lf 1025,6 hPa 0,0 l/m 0 min 0 min 0 W/m 6,8 km/h (2 Bft) 97,87 %
03.12.2017 00:42 -0,4 C -0,6 C -1,1 C 98 % 8 lf 1025,6 hPa 0,0 l/m 0 min 0 min 0 W/m 11,3 km/h (2 Bft) 95,74 %
03.12.2017 00:44 -0,4 C 0,0 C -1,1 C 98 % 9 lf 1025,5 hPa 0,0 l/m 0 min 0 min 0 W/m 9,0 km/h (2 Bft) 91,49 %
03.12.2017 00:46 -0,4 C 0,0 C -1,1 C 98 % 9 lf 1025,5 hPa 0,0 l/m 0 min 0 min 0 W/m 9,0 km/h (2 Bft) 95,74 %
03.12.2017 00:48 -0,4 C 0,0 C -1,1 C 98 % 10 lf 1025,5 hPa 0,0 l/m 0 min 0 min 0 W/m 9,0 km/h (2 Bft) 93,48 %
03.12.2017 00:50 -0,4 C 0,0 C -1,1 C 98 % 10 lf 1025,5 hPa 0,0 l/m 0 min 0 min 0 W/m 9,0 km/h (2 Bft) 93,62 %
03.12.2017 00:52 -0,4 C 0,0 C -1,1 C 98 % 10 lf 1025,4 hPa 0,0 l/m 0 min 0 min 0 W/m 11,3 km/h (2 Bft) 95,74 %
03.12.2017 00:54 -0,4 C 0,0 C -1,1 C 98 % 10 lf 1025,4 hPa 0,0 l/m 0 min 0 min 0 W/m 11,3 km/h (2 Bft) 93,62 %
03.12.2017 00:56 -0,4 C 0,0 C -1,1 C 98 % 10 lf 1025,5 hPa 0,0 l/m 0 min 0 min 0 W/m 11,3 km/h (2 Bft) 91,49 %
03.12.2017 00:58 -0,4 C 0,0 C -1,1 C 98 % 10 lf 1025,4 hPa 0,0 l/m 0 min 0 min 0 W/m 9,0 km/h (2 Bft) 93,62 %
03.12.2017 01:00 -0,4 C 0,0 C -1,1 C 98 % 10 lf 1025,4 hPa 0,0 l/m 0 min 0 min 0 W/m 11,3 km/h (2 Bft) 93,48 %
03.12.2017 01:02 -0,4 C 0,0 C -1,1 C 98 % 10 lf 1025,4 hPa 0,0 l/m 0 min 0 min 0 W/m 9,0 km/h (2 Bft) 95,74 %
03.12.2017 01:04 -0,4 C 0,0 C -1,1 C 98 % 11 lf 1025,4 hPa 0,0 l/m 0 min 0 min 0 W/m 11,3 km/h (2 Bft) 93,62 %
03.12.2017 01:06 -0,4 C 0,0 C -1,1 C 98 % 12 lf 1025,4 hPa 0,0 l/m 0 min 0 min 0 W/m 9,0 km/h (2 Bft) 95,74 %
03.12.2017 01:10 -0,3 C 0,0 C -1,1 C 98 % 12 lf 1025,4 hPa 0,0 l/m 0 min 0 min 0 W/m 11,3 km/h (2 Bft) 95,70 %
03.12.2017 01:12 -0,3 C 0,0 C -1,1 C 98 % 12 lf 1025,4 hPa 0,0 l/m 0 min 0 min 0 W/m 9,0 km/h (2 Bft) 95,74 %
03.12.2017 01:14 -0,3 C 0,0 C -1,1 C 98 % 12 lf 1025,3 hPa 0,0 l/m 0 min 0 min 0 W/m 9,0 km/h (2 Bft) 95,74 %
03.12.2017 01:16 -0,3 C 0,0 C -1,1 C 98 % 12 lf 1025,3 hPa 0,0 l/m 0 min 0 min 0 W/m 11,3 km/h (2 Bft) 95,74 %
03.12.2017 01:18 -0,3 C 0,0 C -1,1 C 98 % 12 lf 1025,2 hPa 0,0 l/m 0 min 0 min 0 W/m 9,0 km/h (2 Bft) 95,74 %
03.12.2017 01:20 -0,3 C 0,0 C -1,1 C 98 % 12 lf 1025,3 hPa 0,0 l/m 0 min 0 min 0 W/m 9,0 km/h (2 Bft) 91,49 %
03.12.2017 01:22 -0,3 C 0,0 C -1,1 C 98 % 12 lf 1025,1 hPa 0,0 l/m 0 min 0 min 0 W/m 18,0 km/h (3 Bft) 95,65 %
03.12.2017 01:24 -0,3 C 0,0 C -0,6 C 98 % 12 lf 1025,2 hPa 0,0 l/m 0 min 0 min 0 W/m 20,3 km/h (4 Bft) 97,87 %
03.12.2017 01:26 -0,3 C 0,0 C -0,6 C 98 % 13 lf 1025,1 hPa 0,0 l/m 0 min 0 min 0 W/m 13,5 km/h (3 Bft) 93,62 %
03.12.2017 01:28 -0,3 C 0,0 C -0,6 C 98 % 13 lf 1025,1 hPa 0,0 l/m 0 min 0 min 0 W/m 15,8 km/h (3 Bft) 97,87 %
03.12.2017 01:30 -0,3 C 0,0 C -0,6 C 98 % 13 lf 1025,1 hPa 0,0 l/m 0 min 0 min 0 W/m 15,8 km/h (3 Bft) 97,87 %
03.12.2017 01:32 -0,3 C 0,0 C -0,6 C 98 % 14 lf 1025,1 hPa 0,0 l/m 0 min 0 min 0 W/m 13,5 km/h (3 Bft) 97,87 %
03.12.2017 01:34 -0,3 C 0,0 C -0,6 C 98 % 14 lf 1025,0 hPa 0,0 l/m 0 min 0 min 0 W/m 15,8 km/h (3 Bft) 97,83 %
03.12.2017 01:36 -0,3 C 0,0 C -0,6 C 98 % 14 lf 1025,0 hPa 0,0 l/m 0 min 0 min 0 W/m 9,0 km/h (2 Bft) 97,87 %
03.12.2017 01:38 -0,3 C 0,0 C -0,6 C 98 % 14 lf 1025,0 hPa 0,0 l/m 0 min 0 min 0 W/m 11,3 km/h (2 Bft) 93,62 %
03.12.2017 01:40 -0,3 C 0,0 C -0,6 C 98 % 14 lf 1025,0 hPa 0,0 l/m 0 min 0 min 0 W/m 15,8 km/h (3 Bft) 97,87 %
03.12.2017 01:42 -0,3 C 0,0 C -0,6 C 98 % 14 lf 1025,0 hPa 0,0 l/m 0 min 0 min 0 W/m 9,0 km/h (2 Bft) 97,87 %
03.12.2017 01:44 -0,3 C 0,0 C -0,6 C 98 % 15 lf 1025,0 hPa 0,0 l/m 0 min 0 min 0 W/m 6,8 km/h (2 Bft) 97,87 %
03.12.2017 01:46 -0,3 C 0,0 C -0,6 C 98 % 15 lf 1024,9 hPa 0,0 l/m 0 min 0 min 0 W/m 13,5 km/h (3 Bft) 95,65 %
03.12.2017 01:48 -0,3 C 0,0 C -0,6 C 98 % 15 lf 1025,0 hPa 0,0 l/m 0 min 0 min 0 W/m 11,3 km/h (2 Bft) 97,87 %
03.12.2017 01:50 -0,3 C 0,0 C -0,6 C 98 % 15 lf 1025,1 hPa 0,0 l/m 0 min 0 min 0 W/m 11,3 km/h (2 Bft) 97,87 %
03.12.2017 01:52 -0,3 C 0,0 C -0,6 C 98 % 15 lf 1025,1 hPa 0,0 l/m 0 min 0 min 0 W/m 6,8 km/h (2 Bft) 95,74 %
03.12.2017 01:54 -0,3 C 0,0 C -0,6 C 98 % 15 lf 1025,2 hPa 0,0 l/m 0 min 0 min 0 W/m 4,5 km/h (1 Bft) 93,62 %
03.12.2017 01:56 -0,3 C 0,0 C -0,6 C 98 % 15 lf 1025,2 hPa 0,0 l/m 0 min 0 min 0 W/m 15,8 km/h (3 Bft) 95,74 %
03.12.2017 01:58 -0,3 C 0,0 C -0,6 C 98 % 15 lf 1025,1 hPa 0,0 l/m 0 min 0 min 0 W/m 6,8 km/h (2 Bft) 97,83 %
03.12.2017 02:00 -0,3 C 0,0 C -0,6 C 98 % 15 lf 1025,1 hPa 0,0 l/m 0 min 0 min 0 W/m 6,8 km/h (2 Bft) 95,74 %
03.12.2017 02:02 -0,3 C 0,0 C -0,6 C 98 % 15 lf 1025,1 hPa 0,0 l/m 0 min 0 min 0 W/m 11,3 km/h (2 Bft) 97,87 %
03.12.2017 02:04 -0,3 C 0,0 C -0,6 C 98 % 15 lf 1025,0 hPa 0,0 l/m 0 min 0 min 0 W/m 18,0 km/h (3 Bft) 97,87 %
03.12.2017 02:06 -0,3 C 0,0 C -0,6 C 98 % 15 lf 1025,1 hPa 0,0 l/m 0 min 0 min 0 W/m 13,5 km/h (3 Bft) 97,87 %
03.12.2017 02:10 -0,3 C 0,0 C -0,6 C 98 % 15 lf 1025,0 hPa 0,0 l/m 0 min 0 min 0 W/m 13,5 km/h (3 Bft) 95,70 %
03.12.2017 02:12 -0,3 C 0,0 C -0,6 C 98 % 15 lf 1025,0 hPa 0,0 l/m 0 min 0 min 0 W/m 13,5 km/h (3 Bft) 95,74 %
03.12.2017 02:14 -0,2 C 0,0 C -0,6 C 98 % 15 lf 1024,9 hPa 0,0 l/m 0 min 0 min 0 W/m 13,5 km/h (3 Bft) 97,87 %
03.12.2017 02:16 -0,3 C 0,0 C -0,6 C 98 % 15 lf 1024,9 hPa 0,0 l/m 0 min 0 min 0 W/m 11,3 km/h (2 Bft) 95,74 %
03.12.2017 02:18 -0,2 C 0,0 C -0,6 C 98 % 15 lf 1024,9 hPa 0,0 l/m 0 min 0 min 0 W/m 9,0 km/h (2 Bft) 97,87 %
03.12.2017 02:20 -0,2 C 0,0 C -0,6 C 98 % 15 lf 1025,0 hPa 0,0 l/m 0 min 0 min 0 W/m 13,5 km/h (3 Bft) 97,87 %
03.12.2017 02:22 -0,2 C 0,0 C -0,6 C 98 % 15 lf 1025,0 hPa 0,0 l/m 0 min 0 min 0 W/m 11,3 km/h (2 Bft) 97,83 %
03.12.2017 02:24 -0,2 C 0,0 C -0,6 C 98 % 15 lf 1025,0 hPa 0,0 l/m 0 min 0 min 0 W/m 13,5 km/h (3 Bft) 97,87 %
03.12.2017 02:26 -0,3 C 0,0 C -0,6 C 98 % 14 lf 1025,1 hPa 0,0 l/m 0 min 0 min 0 W/m 13,5 km/h (3 Bft) 97,87 %
03.12.2017 02:28 -0,2 C 0,0 C -0,6 C 98 % 14 lf 1025,0 hPa 0,0 l/m 0 min 0 min 0 W/m 13,5 km/h (3 Bft) 93,62 %
03.12.2017 02:30 -0,3 C 0,0 C -0,6 C 98 % 14 lf 1025,1 hPa 0,0 l/m 0 min 0 min 0 W/m 18,0 km/h (3 Bft) 97,87 %
03.12.2017 02:32 -0,3 C 0,0 C -0,6 C 98 % 14 lf 1025,1 hPa 0,0 l/m 0 min 0 min 0 W/m 13,5 km/h (3 Bft) 95,65 %
03.12.2017 02:34 -0,3 C 0,0 C -0,6 C 98 % 14 lf 1025,1 hPa 0,0 l/m 0 min 0 min 0 W/m 11,3 km/h (2 Bft) 97,87 %
03.12.2017 02:36 -0,3 C 0,0 C -0,6 C 98 % 14 lf 1025,0 hPa 0,0 l/m 0 min 0 min 0 W/m 9,0 km/h (2 Bft) 100,00 %
03.12.2017 02:38 -0,3 C 0,0 C -0,6 C 98 % 14 lf 1025,1 hPa 0,0 l/m 0 min 0 min 0 W/m 6,8 km/h (2 Bft) 100,00 %
03.12.2017 02:40 -0,3 C 0,0 C -0,6 C 98 % 14 lf 1025,1 hPa 0,0 l/m 0 min 0 min 0 W/m 13,5 km/h (3 Bft) 100,00 %
03.12.2017 02:42 -0,3 C 0,0 C -0,6 C 98 % 13 lf 1024,9 hPa 0,0 l/m 0 min 0 min 0 W/m 9,0 km/h (2 Bft) 95,74 %
03.12.2017 02:44 -0,2 C 0,0 C -0,6 C 98 % 14 lf 1024,9 hPa 0,0 l/m 0 min 0 min 0 W/m 9,0 km/h (2 Bft) 100,00 %
03.12.2017 02:46 -0,3 C 0,0 C -0,6 C 98 % 13 lf 1024,8 hPa 0,0 l/m 0 min 0 min 0 W/m 18,0 km/h (3 Bft) 95,74 %
03.12.2017 02:48 -0,2 C 0,0 C -0,6 C 98 % 14 lf 1024,8 hPa 0,0 l/m 0 min 0 min 0 W/m 9,0 km/h (2 Bft) 97,87 %
03.12.2017 02:50 -0,2 C 0,0 C -0,6 C 98 % 13 lf 1024,8 hPa 0,0 l/m 0 min 0 min 0 W/m 11,3 km/h (2 Bft) 97,87 %
03.12.2017 02:52 -0,2 C 0,0 C -0,6 C 98 % 13 lf 1024,7 hPa 0,0 l/m 0 min 0 min 0 W/m 11,3 km/h (2 Bft) 95,74 %
03.12.2017 02:54 -0,2 C 0,0 C -0,6 C 98 % 13 lf 1024,7 hPa 0,0 l/m 0 min 0 min 0 W/m 15,8 km/h (3 Bft) 97,87 %
03.12.2017 02:56 -0,2 C 0,0 C -0,6 C 98 % 13 lf 1024,7 hPa 0,0 l/m 0 min 0 min 0 W/m 15,8 km/h (3 Bft) 95,65 %
03.12.2017 02:58 -0,2 C 0,0 C -0,6 C 98 % 13 lf 1024,8 hPa 0,0 l/m 0 min 0 min 0 W/m 11,3 km/h (2 Bft) 97,87 %
03.12.2017 03:00 -0,2 C 0,0 C -0,6 C 98 % 13 lf 1024,8 hPa 0,0 l/m 0 min 0 min 0 W/m 6,8 km/h (2 Bft) 97,87 %
03.12.2017 03:02 -0,2 C 0,0 C -0,6 C 98 % 14 lf 1024,7 hPa 0,0 l/m 0 min 0 min 0 W/m 11,3 km/h (2 Bft) 91,49 %
03.12.2017 03:04 -0,2 C 0,0 C -0,6 C 98 % 14 lf 1024,7 hPa 0,0 l/m 0 min 0 min 0 W/m 15,8 km/h (3 Bft) 97,87 %
03.12.2017 03:06 -0,2 C 0,0 C -0,6 C 98 % 14 lf 1024,8 hPa 0,0 l/m 0 min 0 min 0 W/m 11,3 km/h (2 Bft) 89,36 %
03.12.2017 03:10 -0,2 C 0,0 C -0,6 C 98 % 13 lf 1024,6 hPa 0,0 l/m 0 min 0 min 0 W/m 20,3 km/h (4 Bft) 94,38 %
03.12.2017 03:12 -0,2 C 0,0 C -0,6 C 98 % 13 lf 1024,6 hPa 0,0 l/m 0 min 0 min 0 W/m 11,3 km/h (2 Bft) 93,62 %
03.12.2017 03:14 -0,2 C 0,0 C -0,6 C 98 % 13 lf 1024,6 hPa 0,0 l/m 0 min 0 min 0 W/m 11,3 km/h (2 Bft) 95,74 %
03.12.2017 03:16 -0,2 C 0,0 C -0,6 C 98 % 13 lf 1024,5 hPa 0,0 l/m 0 min 0 min 0 W/m 11,3 km/h (2 Bft) 91,49 %
03.12.2017 03:18 -0,2 C 0,0 C -0,6 C 98 % 13 lf 1024,5 hPa 0,0 l/m 0 min 0 min 0 W/m 13,5 km/h (3 Bft) 93,48 %
03.12.2017 03:20 -0,2 C 0,0 C -0,6 C 98 % 12 lf 1024,5 hPa 0,0 l/m 0 min 0 min 0 W/m 13,5 km/h (3 Bft) 93,22 %
03.12.2017 03:22 -0,2 C 0,0 C -0,6 C 98 % 11 lf 1024,6 hPa 0,0 l/m 0 min 0 min 0 W/m 11,3 km/h (2 Bft) 94,29 %
03.12.2017 03:24 -0,2 C 0,0 C -0,6 C 98 % 10 lf 1024,5 hPa 0,0 l/m 0 min 0 min 0 W/m 9,0 km/h (2 Bft) 93,62 %
03.12.2017 03:26 -0,3 C 0,0 C -0,6 C 98 % 7 lf 1024,5 hPa 0,0 l/m 0 min 0 min 0 W/m 18,0 km/h (3 Bft) 95,74 %
03.12.2017 03:28 -0,3 C 0,0 C -0,6 C 98 % 4 lf 1024,5 hPa 0,0 l/m 0 min 0 min 0 W/m 13,5 km/h (3 Bft) 95,65 %
03.12.2017 03:30 -0,3 C 0,0 C -0,6 C 98 % 3 lf 1024,6 hPa 0,0 l/m 0 min 0 min 0 W/m 18,0 km/h (3 Bft) 95,74 %
03.12.2017 03:32 -0,3 C 0,0 C -0,6 C 98 % 3 lf 1024,6 hPa 0,0 l/m 0 min 0 min 0 W/m 9,0 km/h (2 Bft) 95,74 %
03.12.2017 03:34 -0,3 C 0,0 C -0,6 C 98 % 3 lf 1024,6 hPa 0,0 l/m 0 min 0 min 0 W/m 13,5 km/h (3 Bft) 95,74 %
03.12.2017 03:36 -0,3 C 0,0 C -0,6 C 98 % 3 lf 1024,6 hPa 0,0 l/m 0 min 0 min 0 W/m 9,0 km/h (2 Bft) 89,36 %
03.12.2017 03:38 -0,3 C 0,0 C -0,6 C 98 % 3 lf 1024,6 hPa 0,0 l/m 0 min 0 min 0 W/m 9,0 km/h (2 Bft) 89,36 %
03.12.2017 03:40 -0,3 C 0,0 C -0,6 C 98 % 3 lf 1024,5 hPa 0,0 l/m 0 min 0 min 0 W/m 11,3 km/h (2 Bft) 95,65 %
03.12.2017 03:42 -0,3 C 0,0 C -0,6 C 98 % 3 lf 1024,6 hPa 0,0 l/m 0 min 0 min 0 W/m 11,3 km/h (2 Bft) 93,62 %
03.12.2017 03:44 -0,3 C 0,0 C -0,6 C 98 % 2 lf 1024,5 hPa 0,0 l/m 0 min 0 min 0 W/m 11,3 km/h (2 Bft) 95,74 %
03.12.2017 03:46 -0,3 C 0,0 C -0,6 C 98 % 2 lf 1024,5 hPa 0,0 l/m 0 min 0 min 0 W/m 9,0 km/h (2 Bft) 95,74 %
03.12.2017 03:48 -0,3 C 0,0 C -0,6 C 98 % 2 lf 1024,6 hPa 0,0 l/m 0 min 0 min 0 W/m 13,5 km/h (3 Bft) 95,74 %
03.12.2017 03:50 -0,3 C 0,0 C -0,6 C 98 % 2 lf 1024,6 hPa 0,0 l/m 0 min 0 min 0 W/m 15,8 km/h (3 Bft) 95,74 %
03.12.2017 03:52 -0,3 C 0,0 C -0,6 C 98 % 2 lf 1024,6 hPa 0,0 l/m 0 min 0 min 0 W/m 9,0 km/h (2 Bft) 95,65 %
03.12.2017 03:54 -0,3 C 0,0 C -0,6 C 98 % 1 lf 1024,5 hPa 0,0 l/m 0 min 0 min 0 W/m 13,5 km/h (3 Bft) 89,36 %
03.12.2017 03:56 -0,3 C 0,0 C -0,6 C 97 % 1 lf 1024,5 hPa 0,0 l/m 0 min 0 min 0 W/m 11,3 km/h (2 Bft) 89,36 %
03.12.2017 03:58 -0,3 C 0,0 C -0,6 C 97 % 1 lf 1024,5 hPa 0,0 l/m 0 min 0 min 0 W/m 9,0 km/h (2 Bft) 97,87 %
03.12.2017 04:00 -0,4 C 0,0 C -0,6 C 97 % 1 lf 1024,5 hPa 0,0 l/m 0 min 0 min 0 W/m 9,0 km/h (2 Bft) 100,00 %
03.12.2017 04:02 -0,4 C 0,0 C -0,6 C 97 % 1 lf 1024,4 hPa 0,0 l/m 0 min 0 min 0 W/m 13,5 km/h (3 Bft) 100,00 %
03.12.2017 04:04 -0,4 C 0,0 C -0,6 C 97 % 1 lf 1024,4 hPa 0,0 l/m 0 min 0 min 0 W/m 9,0 km/h (2 Bft) 95,65 %
03.12.2017 04:06 -0,3 C 0,0 C -0,6 C 97 % 1 lf 1024,4 hPa 0,0 l/m 0 min 0 min 0 W/m 18,0 km/h (3 Bft) 95,74 %
03.12.2017 04:10 -0,3 C 0,0 C -0,6 C 97 % 0 lf 1024,3 hPa 0,0 l/m 0 min 0 min 0 W/m 11,3 km/h (2 Bft) 98,97 %
03.12.2017 04:12 -0,3 C 0,0 C -0,6 C 98 % 0 lf 1024,3 hPa 0,0 l/m 0 min 0 min 0 W/m 6,8 km/h (2 Bft) 97,87 %
03.12.2017 04:14 -0,3 C 0,0 C -0,6 C 98 % 0 lf 1024,3 hPa 0,0 l/m 0 min 0 min 0 W/m 9,0 km/h (2 Bft) 100,00 %
03.12.2017 04:16 -0,3 C 0,0 C -0,6 C 97 % 0 lf 1024,3 hPa 0,0 l/m 0 min 0 min 0 W/m 9,0 km/h (2 Bft) 100,00 %
03.12.2017 04:18 -0,3 C 0,0 C -0,6 C 97 % 0 lf 1024,3 hPa 0,0 l/m 0 min 0 min 0 W/m 11,3 km/h (2 Bft) 97,87 %
03.12.2017 04:20 -0,3 C 0,0 C -0,6 C 97 % 0 lf 1024,2 hPa 0,0 l/m 0 min 0 min 0 W/m 15,8 km/h (3 Bft) 100,00 %
03.12.2017 04:22 -0,3 C 0,0 C -0,6 C 97 % 0 lf 1024,2 hPa 0,0 l/m 0 min 0 min 0 W/m 18,0 km/h (3 Bft) 97,87 %
03.12.2017 04:24 -0,3 C 0,0 C -0,6 C 97 % 0 lf 1024,1 hPa 0,0 l/m 0 min 0 min 0 W/m 15,8 km/h (3 Bft) 97,87 %
03.12.2017 04:26 -0,3 C 0,0 C -0,6 C 97 % 0 lf 1024,2 hPa 0,0 l/m 0 min 0 min 0 W/m 18,0 km/h (3 Bft) 97,83 %
03.12.2017 04:28 -0,3 C 0,0 C -0,6 C 97 % 0 lf 1024,1 hPa 0,0 l/m 0 min 0 min 0 W/m 15,8 km/h (3 Bft) 95,74 %
03.12.2017 04:30 -0,3 C 0,0 C -0,6 C 97 % 0 lf 1024,1 hPa 0,0 l/m 0 min 0 min 0 W/m 11,3 km/h (2 Bft) 97,87 %
03.12.2017 04:32 -0,3 C 0,0 C -0,6 C 97 % 0 lf 1024,1 hPa 0,0 l/m 0 min 0 min 0 W/m 9,0 km/h (2 Bft) 100,00 %
03.12.2017 04:34 -0,3 C 0,0 C -0,6 C 97 % 0 lf 1024,1 hPa 0,0 l/m 0 min 0 min 0 W/m 13,5 km/h (3 Bft) 100,00 %
03.12.2017 04:36 -0,3 C 0,0 C -0,6 C 97 % 0 lf 1024,0 hPa 0,0 l/m 0 min 0 min 0 W/m 15,8 km/h (3 Bft) 100,00 %
03.12.2017 04:38 -0,3 C 0,0 C -0,6 C 97 % 0 lf 1024,1 hPa 0,0 l/m 0 min 0 min 0 W/m 15,8 km/h (3 Bft) 100,00 %
03.12.2017 04:40 -0,3 C 0,0 C -0,6 C 97 % 0 lf 1024,0 hPa 0,0 l/m 0 min 0 min 0 W/m 15,8 km/h (3 Bft) 97,87 %
03.12.2017 04:42 -0,3 C 0,0 C -0,6 C 97 % 0 lf 1024,1 hPa 0,0 l/m 0 min 0 min 0 W/m 15,8 km/h (3 Bft) 95,74 %
03.12.2017 04:44 -0,3 C 0,0 C -0,6 C 97 % 0 lf 1024,1 hPa 0,0 l/m 0 min 0 min 0 W/m 13,5 km/h (3 Bft) 97,87 %
03.12.2017 04:46 -0,3 C 0,0 C -0,6 C 97 % 0 lf 1024,1 hPa 0,0 l/m 0 min 0 min 0 W/m 11,3 km/h (2 Bft) 93,62 %
03.12.2017 04:48 -0,3 C 0,0 C -0,6 C 97 % 0 lf 1024,1 hPa 0,0 l/m 0 min 0 min 0 W/m 11,3 km/h (2 Bft) 97,87 %
03.12.2017 04:50 -0,3 C 0,0 C -0,6 C 97 % 0 lf 1024,1 hPa 0,0 l/m 0 min 0 min 0 W/m 9,0 km/h (2 Bft) 97,83 %
03.12.2017 04:52 -0,3 C 0,0 C -0,6 C 97 % 0 lf 1024,1 hPa 0,0 l/m 0 min 0 min 0 W/m 18,0 km/h (3 Bft) 95,74 %
03.12.2017 04:54 -0,3 C 0,0 C -0,6 C 97 % 0 lf 1024,1 hPa 0,0 l/m 0 min 0 min 0 W/m 15,8 km/h (3 Bft) 97,87 %
03.12.2017 04:56 -0,3 C 0,0 C -0,6 C 97 % 0 lf 1024,0 hPa 0,0 l/m 0 min 0 min 0 W/m 15,8 km/h (3 Bft) 95,74 %
03.12.2017 04:58 -0,3 C 0,0 C -0,6 C 97 % 0 lf 1024,0 hPa 0,0 l/m 0 min 0 min 0 W/m 18,0 km/h (3 Bft) 97,87 %
03.12.2017 05:00 -0,3 C 0,0 C -1,1 C 97 % 1 lf 1023,9 hPa 0,0 l/m 0 min 0 min 0 W/m 13,5 km/h (3 Bft) 89,36 %
03.12.2017 05:02 -0,3 C 0,0 C -1,1 C 96 % 2 lf 1023,9 hPa 0,0 l/m 0 min 0 min 0 W/m 13,5 km/h (3 Bft) 97,83 %
03.12.2017 05:04 -0,3 C 0,0 C -1,1 C 97 % 3 lf 1023,9 hPa 0,0 l/m 0 min 0 min 0 W/m 15,8 km/h (3 Bft) 97,87 %
03.12.2017 05:06 -0,3 C 0,0 C -1,1 C 97 % 3 lf 1023,8 hPa 0,0 l/m 0 min 0 min 0 W/m 18,0 km/h (3 Bft) 95,74 %
03.12.2017 05:10 -0,2 C 0,0 C -1,1 C 96 % 3 lf 1023,8 hPa 0,0 l/m 0 min 0 min 0 W/m 20,3 km/h (4 Bft) 98,95 %
03.12.2017 05:12 -0,2 C 0,0 C -1,1 C 96 % 3 lf 1023,7 hPa 0,0 l/m 0 min 0 min 0 W/m 15,8 km/h (3 Bft) 95,65 %
03.12.2017 05:14 -0,2 C 0,0 C -1,1 C 96 % 3 lf 1023,7 hPa 0,0 l/m 0 min 0 min 0 W/m 15,8 km/h (3 Bft) 100,00 %
03.12.2017 05:16 -0,2 C 0,0 C -1,1 C 96 % 3 lf 1023,8 hPa 0,0 l/m 0 min 0 min 0 W/m 15,8 km/h (3 Bft) 100,00 %
03.12.2017 05:18 -0,2 C 0,0 C -1,1 C 96 % 3 lf 1023,7 hPa 0,0 l/m 0 min 0 min 0 W/m 13,5 km/h (3 Bft) 93,62 %
03.12.2017 05:20 -0,2 C 0,0 C -1,1 C 96 % 3 lf 1023,8 hPa 0,0 l/m 0 min 0 min 0 W/m 18,0 km/h (3 Bft) 100,00 %
03.12.2017 05:22 -0,2 C 0,0 C -1,1 C 96 % 3 lf 1023,8 hPa 0,0 l/m 0 min 2 min 0 W/m 18,0 km/h (3 Bft) 100,00 %
03.12.2017 05:24 -0,2 C 0,0 C -1,1 C 96 % 3 lf 1023,7 hPa 0,0 l/m 0 min 0 min 0 W/m 15,8 km/h (3 Bft) 100,00 %
03.12.2017 05:26 -0,2 C 0,0 C -1,1 C 96 % 3 lf 1023,7 hPa 0,0 l/m 0 min 0 min 0 W/m 13,5 km/h (3 Bft) 100,00 %
03.12.2017 05:28 -0,2 C 0,0 C -1,1 C 96 % 3 lf 1023,8 hPa 0,0 l/m 0 min 0 min 0 W/m 13,5 km/h (3 Bft) 100,00 %
03.12.2017 05:30 -0,2 C 0,0 C -1,1 C 96 % 2 lf 1023,8 hPa 0,0 l/m 0 min 0 min 0 W/m 20,3 km/h (4 Bft) 100,00 %
03.12.2017 05:32 -0,2 C 0,0 C -1,1 C 96 % 2 lf 1023,8 hPa 0,0 l/m 0 min 0 min 0 W/m 20,3 km/h (4 Bft) 100,00 %
03.12.2017 05:34 -0,2 C 0,0 C -1,1 C 96 % 2 lf 1023,8 hPa 0,0 l/m 0 min 0 min 0 W/m 15,8 km/h (3 Bft) 97,87 %
03.12.2017 05:35 -0,2 C 0,0 C -1,1 C 96 % 2 lf 1023,8 hPa 0,0 l/m 0 min 0 min 0 W/m 20,3 km/h (4 Bft) 100,00 %
03.12.2017 05:40 -0,2 C 0,0 C -1,1 C 96 % 2 lf 1023,6 hPa 0,0 l/m 0 min 0 min 0 W/m 15,8 km/h (3 Bft) 95,65 %
03.12.2017 05:42 -0,2 C 0,0 C -1,1 C 96 % 2 lf 1023,6 hPa 0,0 l/m 0 min 0 min 0 W/m 18,0 km/h (3 Bft) 100,00 %
03.12.2017 05:44 -0,2 C 0,0 C -1,1 C 96 % 4 lf 1023,6 hPa 0,0 l/m 0 min 2 min 0 W/m 18,0 km/h (3 Bft) 98,31 %
03.12.2017 05:46 -0,2 C 0,0 C -1,1 C 95 % 3 lf 1023,6 hPa 0,0 l/m 0 min 2 min 0 W/m 18,0 km/h (3 Bft) 95,65 %
03.12.2017 05:48 -0,2 C 0,0 C -1,1 C 95 % 6 lf 1023,7 hPa 0,0 l/m 0 min 2 min 0 W/m 13,5 km/h (3 Bft) 97,87 %
03.12.2017 05:50 -0,2 C 0,0 C -1,1 C 95 % 5 lf 1023,7 hPa 0,0 l/m 0 min 2 min 0 W/m 22,5 km/h (4 Bft) 97,87 %
03.12.2017 05:52 -0,2 C 0,0 C -1,1 C 95 % 5 lf 1023,7 hPa 0,0 l/m 0 min 2 min 0 W/m 18,0 km/h (3 Bft) 94,29 %
03.12.2017 05:54 -0,2 C 0,0 C -1,1 C 95 % 6 lf 1023,6 hPa 0,0 l/m 0 min 2 min 0 W/m 9,0 km/h (2 Bft) 93,62 %
03.12.2017 05:56 -0,2 C 0,0 C -1,1 C 95 % 7 lf 1023,6 hPa 0,0 l/m 0 min 2 min 0 W/m 13,5 km/h (3 Bft) 95,74 %
03.12.2017 05:58 -0,2 C 0,0 C -1,1 C 95 % 9 lf 1023,6 hPa 0,0 l/m 0 min 2 min 0 W/m 15,8 km/h (3 Bft) 97,87 %
03.12.2017 06:00 -0,2 C 0,0 C -1,1 C 95 % 10 lf 1023,6 hPa 0,0 l/m 0 min 2 min 0 W/m 13,5 km/h (3 Bft) 95,74 %
03.12.2017 06:02 -0,1 C 0,0 C -1,1 C 95 % 10 lf 1023,6 hPa 0,0 l/m 0 min 2 min 0 W/m 11,3 km/h (2 Bft) 92,73 %
03.12.2017 06:04 -0,1 C 0,0 C -1,1 C 95 % 11 lf 1023,6 hPa 0,0 l/m 0 min 2 min 0 W/m 13,5 km/h (3 Bft) 94,00 %
03.12.2017 06:06 -0,1 C 0,0 C -1,1 C 95 % 10 lf 1023,6 hPa 0,0 l/m 0 min 2 min 0 W/m 15,8 km/h (3 Bft) 91,43 %
03.12.2017 06:10 -0,1 C 0,0 C -1,1 C 95 % 12 lf 1023,6 hPa 0,0 l/m 0 min 4 min 0 W/m 15,8 km/h (3 Bft) 93,07 %
03.12.2017 06:12 -0,1 C 0,0 C -1,1 C 95 % 12 lf 1023,7 hPa 0,0 l/m 0 min 2 min 0 W/m 15,8 km/h (3 Bft) 92,00 %
03.12.2017 06:14 -0,1 C 0,0 C -1,1 C 95 % 12 lf 1023,6 hPa 0,0 l/m 0 min 2 min 0 W/m 9,0 km/h (2 Bft) 91,67 %
03.12.2017 06:16 -0,1 C 0,0 C -1,1 C 95 % 12 lf 1023,7 hPa 0,0 l/m 0 min 2 min 0 W/m 13,5 km/h (3 Bft) 93,22 %
03.12.2017 06:18 -0,1 C 0,0 C -1,1 C 95 % 12 lf 1023,7 hPa 0,0 l/m 0 min 2 min 0 W/m 15,8 km/h (3 Bft) 88,57 %
03.12.2017 06:20 -0,1 C 0,0 C -1,1 C 95 % 13 lf 1023,7 hPa 0,0 l/m 0 min 2 min 0 W/m 13,5 km/h (3 Bft) 92,45 %
03.12.2017 06:22 -0,1 C 0,0 C -1,1 C 95 % 13 lf 1023,7 hPa 0,0 l/m 0 min 2 min 0 W/m 13,5 km/h (3 Bft) 91,84 %
03.12.2017 06:24 -0,1 C 0,0 C -1,1 C 95 % 13 lf 1023,7 hPa 0,0 l/m 0 min 2 min 0 W/m 13,5 km/h (3 Bft) 91,49 %
03.12.2017 06:26 -0,1 C 0,0 C -1,1 C 95 % 13 lf 1023,6 hPa 0,0 l/m 0 min 2 min 0 W/m 11,3 km/h (2 Bft) 92,00 %
03.12.2017 06:28 -0,1 C 0,0 C -1,1 C 95 % 14 lf 1023,5 hPa 0,0 l/m 0 min 2 min 0 W/m 11,3 km/h (2 Bft) 88,57 %
03.12.2017 06:30 -0,1 C 0,0 C -1,1 C 94 % 14 lf 1023,5 hPa 0,0 l/m 0 min 2 min 0 W/m 13,5 km/h (3 Bft) 85,11 %
03.12.2017 06:32 -0,1 C 0,0 C -1,1 C 94 % 14 lf 1023,5 hPa 0,0 l/m 0 min 2 min 0 W/m 11,3 km/h (2 Bft) 91,49 %
03.12.2017 06:34 -0,1 C 0,0 C -1,1 C 94 % 14 lf 1023,4 hPa 0,0 l/m 0 min 2 min 0 W/m 13,5 km/h (3 Bft) 87,23 %
03.12.2017 06:36 0,0 C 0,0 C -1,1 C 94 % 14 lf 1023,5 hPa 0,0 l/m 0 min 2 min 0 W/m 15,8 km/h (3 Bft) 92,73 %
03.12.2017 06:38 0,0 C 0,0 C -1,1 C 94 % 15 lf 1023,5 hPa 0,0 l/m 0 min 2 min 0 W/m 13,5 km/h (3 Bft) 91,49 %
03.12.2017 06:40 0,0 C 0,0 C -1,1 C 94 % 15 lf 1023,5 hPa 0,0 l/m 0 min 2 min 0 W/m 11,3 km/h (2 Bft) 93,62 %
03.12.2017 06:42 0,0 C 0,0 C -1,1 C 94 % 15 lf 1023,5 hPa 0,0 l/m 0 min 2 min 0 W/m 13,5 km/h (3 Bft) 92,00 %
03.12.2017 06:44 0,0 C 0,0 C -1,1 C 94 % 15 lf 1023,5 hPa 0,0 l/m 0 min 2 min 0 W/m 6,8 km/h (2 Bft) 93,48 %
03.12.2017 06:46 0,0 C 0,0 C -1,1 C 94 % 15 lf 1023,5 hPa 0,0 l/m 0 min 2 min 0 W/m 9,0 km/h (2 Bft) 91,67 %
03.12.2017 06:48 0,1 C 0,0 C -1,1 C 94 % 15 lf 1023,5 hPa 0,0 l/m 0 min 0 min 0 W/m 11,3 km/h (2 Bft) 95,83 %
03.12.2017 06:50 0,1 C 0,0 C -1,1 C 95 % 15 lf 1023,5 hPa 0,0 l/m 0 min 0 min 0 W/m 11,3 km/h (2 Bft) 91,30 %
03.12.2017 06:52 0,1 C 0,0 C -1,1 C 94 % 15 lf 1023,5 hPa 0,0 l/m 0 min 2 min 0 W/m 9,0 km/h (2 Bft) 93,62 %
03.12.2017 06:54 0,1 C 0,0 C -1,1 C 94 % 15 lf 1023,5 hPa 0,0 l/m 0 min 2 min 0 W/m 15,8 km/h (3 Bft) 97,87 %
03.12.2017 06:56 0,1 C 0,0 C -1,1 C 94 % 15 lf 1023,4 hPa 0,0 l/m 0 min 2 min 0 W/m 13,5 km/h (3 Bft) 96,30 %
03.12.2017 06:58 0,1 C 0,0 C -1,1 C 94 % 15 lf 1023,4 hPa 0,0 l/m 0 min 2 min 0 W/m 15,8 km/h (3 Bft) 94,00 %
03.12.2017 07:00 0,1 C 0,0 C -1,1 C 94 % 15 lf 1023,5 hPa 0,0 l/m 0 min 2 min 0 W/m 11,3 km/h (2 Bft) 100,00 %
03.12.2017 07:02 0,1 C 0,0 C -1,1 C 94 % 15 lf 1023,4 hPa 0,0 l/m 0 min 2 min 0 W/m 11,3 km/h (2 Bft) 95,74 %
03.12.2017 07:04 0,1 C 0,0 C -1,1 C 94 % 15 lf 1023,4 hPa 0,0 l/m 0 min 0 min 0 W/m 9,0 km/h (2 Bft) 100,00 %
03.12.2017 07:06 0,1 C 0,0 C -1,1 C 94 % 15 lf 1023,4 hPa 0,0 l/m 0 min 2 min 0 W/m 13,5 km/h (3 Bft) 100,00 %
03.12.2017 07:10 0,1 C 0,0 C -1,1 C 94 % 15 lf 1023,4 hPa 0,0 l/m 0 min 4 min 0 W/m 9,0 km/h (2 Bft) 98,95 %
03.12.2017 07:12 0,1 C 0,0 C -1,1 C 94 % 15 lf 1023,4 hPa 0,0 l/m 0 min 2 min 0 W/m 11,3 km/h (2 Bft) 97,87 %
03.12.2017 07:14 0,1 C 0,0 C -1,1 C 94 % 15 lf 1023,4 hPa 0,0 l/m 0 min 2 min 0 W/m 9,0 km/h (2 Bft) 97,87 %
03.12.2017 07:16 0,1 C 0,0 C -1,1 C 94 % 15 lf 1023,4 hPa 0,0 l/m 0 min 2 min 0 W/m 11,3 km/h (2 Bft) 97,87 %
03.12.2017 07:18 0,1 C 0,0 C -1,1 C 94 % 15 lf 1023,4 hPa 0,0 l/m 0 min 2 min 0 W/m 11,3 km/h (2 Bft) 100,00 %
03.12.2017 07:20 0,1 C 0,0 C -1,1 C 94 % 15 lf 1023,4 hPa 0,0 l/m 0 min 2 min 0 W/m 11,3 km/h (2 Bft) 100,00 %
03.12.2017 07:22 0,1 C 0,0 C -1,1 C 94 % 15 lf 1023,4 hPa 0,0 l/m 0 min 2 min 0 W/m 11,3 km/h (2 Bft) 100,00 %
03.12.2017 07:24 0,1 C 0,0 C -1,1 C 94 % 15 lf 1023,4 hPa 0,0 l/m 0 min 2 min 0 W/m 15,8 km/h (3 Bft) 100,00 %
03.12.2017 07:26 0,1 C 0,0 C -1,1 C 94 % 15 lf 1023,4 hPa 0,0 l/m 0 min 2 min 0 W/m 15,8 km/h (3 Bft) 97,87 %
03.12.2017 07:28 0,1 C 0,0 C -1,1 C 94 % 15 lf 1023,4 hPa 0,0 l/m 0 min 2 min 0 W/m 6,8 km/h (2 Bft) 100,00 %
03.12.2017 07:30 0,1 C 0,0 C -1,1 C 94 % 15 lf 1023,4 hPa 0,0 l/m 0 min 2 min 0 W/m 15,8 km/h (3 Bft) 97,83 %
03.12.2017 07:32 0,1 C -0,6 C -1,1 C 94 % 15 lf 1023,4 hPa 0,0 l/m 0 min 2 min 0 W/m 18,0 km/h (3 Bft) 100,00 %
03.12.2017 07:34 0,1 C 0,0 C -1,1 C 94 % 15 lf 1023,3 hPa 0,0 l/m 0 min 2 min 0 W/m 11,3 km/h (2 Bft) 100,00 %
03.12.2017 07:36 0,1 C 0,0 C -1,1 C 94 % 15 lf 1023,3 hPa 0,0 l/m 0 min 2 min 0 W/m 11,3 km/h (2 Bft) 100,00 %
03.12.2017 07:38 0,1 C 0,0 C -1,1 C 94 % 15 lf 1023,3 hPa 0,0 l/m 0 min 2 min 0 W/m 11,3 km/h (2 Bft) 100,00 %
03.12.2017 07:40 0,1 C 0,0 C -1,1 C 94 % 15 lf 1023,3 hPa 0,0 l/m 0 min 2 min 0 W/m 15,8 km/h (3 Bft) 97,87 %
03.12.2017 07:42 0,1 C 0,0 C -1,1 C 94 % 15 lf 1023,3 hPa 0,0 l/m 0 min 2 min 0 W/m 18,0 km/h (3 Bft) 97,83 %
03.12.2017 07:44 0,1 C 0,0 C -1,1 C 94 % 15 lf 1023,3 hPa 0,0 l/m 0 min 2 min 0 W/m 18,0 km/h (3 Bft) 100,00 %
03.12.2017 07:46 0,1 C 0,0 C -1,1 C 94 % 15 lf 1023,3 hPa 0,0 l/m 0 min 2 min 0 W/m 20,3 km/h (4 Bft) 100,00 %
03.12.2017 07:48 0,1 C 0,0 C -1,1 C 94 % 15 lf 1023,3 hPa 0,0 l/m 0 min 2 min 0 W/m 15,8 km/h (3 Bft) 100,00 %
03.12.2017 07:50 0,1 C 0,0 C -1,1 C 94 % 15 lf 1023,3 hPa 0,0 l/m 0 min 2 min 0 W/m 15,8 km/h (3 Bft) 100,00 %
03.12.2017 07:52 0,1 C 0,0 C -1,1 C 94 % 15 lf 1023,3 hPa 0,0 l/m 0 min 2 min 0 W/m 13,5 km/h (3 Bft) 94,29 %
03.12.2017 07:54 0,1 C 0,0 C -1,1 C 94 % 15 lf 1023,3 hPa 0,0 l/m 0 min 2 min 0 W/m 13,5 km/h (3 Bft) 100,00 %
03.12.2017 07:56 0,1 C 0,0 C -1,1 C 94 % 15 lf 1023,4 hPa 0,0 l/m 0 min 2 min 0 W/m 20,3 km/h (4 Bft) 100,00 %
03.12.2017 07:58 0,1 C 0,0 C -1,1 C 94 % 15 lf 1023,3 hPa 0,0 l/m 0 min 2 min 0 W/m 13,5 km/h (3 Bft) 100,00 %
03.12.2017 08:00 0,1 C 0,0 C -1,1 C 94 % 15 lf 1023,3 hPa 0,0 l/m 0 min 2 min 0 W/m 15,8 km/h (3 Bft) 97,87 %
03.12.2017 08:02 0,1 C 0,0 C -1,1 C 94 % 15 lf 1023,3 hPa 0,0 l/m 0 min 2 min 0 W/m 13,5 km/h (3 Bft) 100,00 %
03.12.2017 08:04 0,2 C 0,0 C -1,1 C 94 % 15 lf 1023,3 hPa 0,0 l/m 0 min 2 min 0 W/m 11,3 km/h (2 Bft) 97,87 %
03.12.2017 08:06 0,1 C 0,0 C -1,1 C 94 % 15 lf 1023,4 hPa 0,0 l/m 0 min 0 min 0 W/m 15,8 km/h (3 Bft) 97,87 %
03.12.2017 08:10 0,1 C 0,0 C -1,1 C 94 % 15 lf 1023,5 hPa 0,0 l/m 0 min 4 min 0 W/m 15,8 km/h (3 Bft) 99,00 %
03.12.2017 08:12 0,2 C 0,0 C -1,1 C 94 % 15 lf 1023,4 hPa 0,0 l/m 0 min 2 min 0 W/m 11,3 km/h (2 Bft) 97,87 %
03.12.2017 08:14 0,2 C 0,0 C -1,1 C 94 % 15 lf 1023,5 hPa 0,0 l/m 0 min 2 min 0 W/m 15,8 km/h (3 Bft) 100,00 %
03.12.2017 08:16 0,2 C 0,0 C -1,1 C 94 % 15 lf 1023,4 hPa 0,0 l/m 0 min 2 min 0 W/m 13,5 km/h (3 Bft) 100,00 %
03.12.2017 08:18 0,2 C 0,0 C -1,1 C 94 % 15 lf 1023,4 hPa 0,0 l/m 0 min 2 min 0 W/m 18,0 km/h (3 Bft) 97,83 %
03.12.2017 08:20 0,2 C 0,0 C -1,1 C 94 % 15 lf 1023,4 hPa 0,0 l/m 0 min 2 min 0 W/m 15,8 km/h (3 Bft) 95,74 %
03.12.2017 08:22 0,2 C 0,0 C -1,1 C 94 % 15 lf 1023,4 hPa 0,0 l/m 0 min 2 min 0 W/m 11,3 km/h (2 Bft) 100,00 %
03.12.2017 08:24 0,2 C 0,0 C -1,1 C 94 % 15 lf 1023,5 hPa 0,0 l/m 0 min 2 min 0 W/m 13,5 km/h (3 Bft) 97,87 %
03.12.2017 08:26 0,2 C 0,0 C -1,1 C 94 % 15 lf 1023,4 hPa 0,0 l/m 0 min 2 min 0 W/m 20,3 km/h (4 Bft) 91,49 %
03.12.2017 08:28 0,2 C 0,0 C -1,1 C 94 % 15 lf 1023,4 hPa 0,0 l/m 0 min 2 min 0 W/m 13,5 km/h (3 Bft) 95,74 %
03.12.2017 08:30 0,2 C 0,0 C -1,1 C 94 % 15 lf 1023,4 hPa 0,0 l/m 0 min 2 min 0 W/m 18,0 km/h (3 Bft) 95,65 %
03.12.2017 08:32 0,2 C 0,0 C -1,1 C 94 % 15 lf 1023,4 hPa 0,0 l/m 0 min 2 min 3 W/m 13,5 km/h (3 Bft) 93,62 %
03.12.2017 08:34 0,2 C 0,0 C -1,1 C 94 % 15 lf 1023,5 hPa 0,0 l/m 0 min 2 min 5 W/m 13,5 km/h (3 Bft) 93,62 %
03.12.2017 08:36 0,2 C 0,0 C -1,1 C 94 % 15 lf 1023,4 hPa 0,0 l/m 0 min 2 min 5 W/m 11,3 km/h (2 Bft) 95,74 %
03.12.2017 08:38 0,2 C 0,0 C -1,1 C 94 % 15 lf 1023,4 hPa 0,0 l/m 0 min 2 min 5 W/m 13,5 km/h (3 Bft) 95,74 %
03.12.2017 08:40 0,2 C 0,0 C -1,1 C 94 % 15 lf 1023,4 hPa 0,0 l/m 0 min 2 min 5 W/m 13,5 km/h (3 Bft) 95,74 %
03.12.2017 08:42 0,2 C 0,0 C -1,1 C 94 % 15 lf 1023,4 hPa 0,0 l/m 0 min 2 min 6 W/m 18,0 km/h (3 Bft) 91,30 %
03.12.2017 08:44 0,2 C 0,0 C -1,1 C 94 % 15 lf 1023,4 hPa 0,0 l/m 0 min 2 min 7 W/m 15,8 km/h (3 Bft) 97,87 %
03.12.2017 08:46 0,2 C 0,0 C -1,1 C 94 % 15 lf 1023,4 hPa 0,0 l/m 0 min 2 min 7 W/m 15,8 km/h (3 Bft) 93,62 %
03.12.2017 08:48 0,2 C 0,0 C -1,1 C 94 % 15 lf 1023,4 hPa 0,0 l/m 0 min 0 min 7 W/m 11,3 km/h (2 Bft) 95,74 %
03.12.2017 08:50 0,2 C 0,0 C -1,1 C 94 % 15 lf 1023,5 hPa 0,0 l/m 0 min 0 min 7 W/m 11,3 km/h (2 Bft) 95,74 %
03.12.2017 08:52 0,2 C 0,0 C -1,1 C 94 % 15 lf 1023,4 hPa 0,0 l/m 0 min 0 min 7 W/m 9,0 km/h (2 Bft) 97,83 %
03.12.2017 08:54 0,2 C 0,0 C -1,1 C 94 % 15 lf 1023,4 hPa 0,0 l/m 0 min 2 min 7 W/m 15,8 km/h (3 Bft) 97,87 %
03.12.2017 08:56 0,2 C 0,0 C -1,1 C 94 % 15 lf 1023,4 hPa 0,0 l/m 0 min 0 min 9 W/m 18,0 km/h (3 Bft) 95,74 %
03.12.2017 08:58 0,2 C 0,0 C -1,1 C 94 % 15 lf 1023,5 hPa 0,0 l/m 0 min 0 min 8 W/m 15,8 km/h (3 Bft) 97,87 %
03.12.2017 09:00 0,2 C 0,0 C -1,1 C 94 % 15 lf 1023,5 hPa 0,0 l/m 0 min 0 min 7 W/m 13,5 km/h (3 Bft) 97,87 %
03.12.2017 09:02 0,2 C 0,0 C -1,1 C 94 % 15 lf 1023,4 hPa 0,0 l/m 0 min 0 min 9 W/m 13,5 km/h (3 Bft) 95,74 %
03.12.2017 09:04 0,2 C 0,0 C -1,1 C 94 % 15 lf 1023,4 hPa 0,0 l/m 0 min 0 min 11 W/m 15,8 km/h (3 Bft) 95,65 %
03.12.2017 09:06 0,2 C 0,0 C -1,1 C 94 % 15 lf 1023,4 hPa 0,0 l/m 0 min 0 min 13 W/m 15,8 km/h (3 Bft) 91,49 %
03.12.2017 09:10 0,3 C 0,0 C -0,6 C 94 % 14 lf 1023,4 hPa 0,0 l/m 0 min 0 min 16 W/m 15,8 km/h (3 Bft) 95,83 %
03.12.2017 09:12 0,3 C 0,0 C -0,6 C 94 % 15 lf 1023,4 hPa 0,0 l/m 0 min 2 min 18 W/m 15,8 km/h (3 Bft) 100,00 %
03.12.2017 09:14 0,3 C 0,0 C -0,6 C 94 % 14 lf 1023,4 hPa 0,0 l/m 0 min 2 min 16 W/m 13,5 km/h (3 Bft) 93,62 %
03.12.2017 09:16 0,3 C 0,0 C -0,6 C 94 % 14 lf 1023,5 hPa 0,0 l/m 0 min 2 min 18 W/m 15,8 km/h (3 Bft) 97,83 %
03.12.2017 09:18 0,3 C 0,0 C -0,6 C 94 % 14 lf 1023,5 hPa 0,0 l/m 0 min 2 min 21 W/m 15,8 km/h (3 Bft) 97,87 %
03.12.2017 09:20 0,3 C 0,0 C -0,6 C 94 % 14 lf 1023,4 hPa 0,0 l/m 0 min 2 min 21 W/m 20,3 km/h (4 Bft) 97,87 %
03.12.2017 09:22 0,3 C 0,0 C -0,6 C 94 % 14 lf 1023,4 hPa 0,0 l/m 0 min 2 min 23 W/m 13,5 km/h (3 Bft) 95,74 %
03.12.2017 09:24 0,3 C 0,0 C -1,1 C 94 % 15 lf 1023,4 hPa 0,0 l/m 0 min 2 min 25 W/m 20,3 km/h (4 Bft) 97,87 %
03.12.2017 09:26 0,3 C 0,0 C -0,6 C 94 % 15 lf 1023,4 hPa 0,0 l/m 0 min 2 min 26 W/m 20,3 km/h (4 Bft) 95,74 %
03.12.2017 09:28 0,4 C 0,0 C -0,6 C 94 % 15 lf 1023,4 hPa 0,0 l/m 0 min 2 min 27 W/m 22,5 km/h (4 Bft) 95,65 %
03.12.2017 09:30 0,4 C 0,0 C -0,6 C 94 % 15 lf 1023,4 hPa 0,0 l/m 0 min 2 min 26 W/m 20,3 km/h (4 Bft) 97,87 %
03.12.2017 09:32 0,4 C 0,0 C -0,6 C 94 % 15 lf 1023,5 hPa 0,0 l/m 0 min 2 min 25 W/m 15,8 km/h (3 Bft) 97,87 %
03.12.2017 09:34 0,4 C 0,0 C -0,6 C 94 % 15 lf 1023,5 hPa 0,0 l/m 0 min 2 min 25 W/m 22,5 km/h (4 Bft) 97,87 %
03.12.2017 09:36 0,4 C 0,0 C -0,6 C 94 % 15 lf 1023,4 hPa 0,0 l/m 0 min 2 min 27 W/m 15,8 km/h (3 Bft) 97,87 %
03.12.2017 09:38 0,4 C 0,0 C -0,6 C 94 % 15 lf 1023,4 hPa 0,0 l/m 0 min 2 min 28 W/m 18,0 km/h (3 Bft) 97,83 %
03.12.2017 09:40 0,4 C 0,0 C -0,6 C 94 % 15 lf 1023,4 hPa 0,0 l/m 0 min 2 min 28 W/m 13,5 km/h (3 Bft) 95,74 %
03.12.2017 09:42 0,4 C 0,0 C -0,6 C 94 % 15 lf 1023,4 hPa 0,0 l/m 0 min 2 min 26 W/m 13,5 km/h (3 Bft) 95,74 %
03.12.2017 09:44 0,4 C 0,0 C -0,6 C 94 % 15 lf 1023,4 hPa 0,0 l/m 0 min 2 min 26 W/m 18,0 km/h (3 Bft) 97,87 %
03.12.2017 09:46 0,5 C 0,0 C -0,6 C 94 % 15 lf 1023,5 hPa 0,0 l/m 0 min 2 min 26 W/m 13,5 km/h (3 Bft) 95,74 %
03.12.2017 09:48 0,5 C 0,0 C -0,6 C 94 % 15 lf 1023,4 hPa 0,0 l/m 0 min 2 min 24 W/m 11,3 km/h (2 Bft) 95,74 %
03.12.2017 09:50 0,5 C 0,0 C -0,6 C 94 % 15 lf 1023,5 hPa 0,0 l/m 0 min 2 min 20 W/m 13,5 km/h (3 Bft) 95,65 %
03.12.2017 09:52 0,5 C 0,0 C -0,6 C 94 % 15 lf 1023,5 hPa 0,0 l/m 0 min 2 min 19 W/m 13,5 km/h (3 Bft) 97,87 %
03.12.2017 09:54 0,5 C 0,0 C -0,6 C 94 % 15 lf 1023,5 hPa 0,0 l/m 0 min 2 min 19 W/m 9,0 km/h (2 Bft) 97,87 %
03.12.2017 09:56 0,5 C 0,0 C -0,6 C 94 % 15 lf 1023,5 hPa 0,0 l/m 0 min 2 min 22 W/m 18,0 km/h (3 Bft) 95,74 %
03.12.2017 09:58 0,5 C 0,0 C -0,6 C 94 % 15 lf 1023,5 hPa 0,0 l/m 0 min 2 min 25 W/m 15,8 km/h (3 Bft) 95,74 %
03.12.2017 10:00 0,5 C 0,0 C -0,6 C 94 % 15 lf 1023,5 hPa 0,0 l/m 0 min 2 min 26 W/m 11,3 km/h (2 Bft) 95,74 %
03.12.2017 10:02 0,5 C 0,0 C -0,6 C 94 % 15 lf 1023,5 hPa 0,0 l/m 0 min 2 min 27 W/m 18,0 km/h (3 Bft) 97,83 %
03.12.2017 10:04 0,5 C 0,0 C -0,6 C 94 % 15 lf 1023,6 hPa 0,0 l/m 0 min 2 min 31 W/m 9,0 km/h (2 Bft) 95,74 %
03.12.2017 10:06 0,5 C 0,0 C -0,6 C 94 % 15 lf 1023,6 hPa 0,0 l/m 0 min 2 min 34 W/m 13,5 km/h (3 Bft) 95,74 %
03.12.2017 10:10 0,5 C 0,0 C -0,6 C 94 % 15 lf 1023,5 hPa 0,0 l/m 0 min 4 min 37 W/m 15,8 km/h (3 Bft) 95,79 %
03.12.2017 10:12 0,5 C 0,6 C -0,6 C 94 % 15 lf 1023,5 hPa 0,0 l/m 0 min 2 min 40 W/m 18,0 km/h (3 Bft) 95,74 %
03.12.2017 10:14 0,5 C 0,6 C -0,6 C 94 % 15 lf 1023,5 hPa 0,0 l/m 0 min 2 min 39 W/m 15,8 km/h (3 Bft) 95,65 %
03.12.2017 10:16 0,5 C 0,6 C -0,6 C 94 % 15 lf 1023,5 hPa 0,0 l/m 0 min 2 min 40 W/m 22,5 km/h (4 Bft) 95,74 %
03.12.2017 10:18 0,6 C 0,6 C -0,6 C 94 % 15 lf 1023,4 hPa 0,0 l/m 0 min 2 min 42 W/m 18,0 km/h (3 Bft) 95,74 %
03.12.2017 10:20 0,6 C 0,6 C -0,6 C 94 % 15 lf 1023,5 hPa 0,0 l/m 0 min 2 min 42 W/m 15,8 km/h (3 Bft) 95,74 %
03.12.2017 10:22 0,6 C 0,6 C -0,6 C 94 % 15 lf 1023,5 hPa 0,0 l/m 0 min 2 min 42 W/m 15,8 km/h (3 Bft) 93,62 %
03.12.2017 10:24 0,6 C 0,6 C 0,0 C 94 % 15 lf 1023,5 hPa 0,0 l/m 0 min 2 min 41 W/m 13,5 km/h (3 Bft) 93,62 %
03.12.2017 10:26 0,7 C 0,6 C 0,0 C 94 % 15 lf 1023,5 hPa 0,0 l/m 0 min 2 min 39 W/m 22,5 km/h (4 Bft) 93,48 %
03.12.2017 10:28 0,7 C 0,6 C 0,0 C 94 % 15 lf 1023,5 hPa 0,0 l/m 0 min 2 min 38 W/m 22,5 km/h (4 Bft) 95,74 %
03.12.2017 10:30 0,7 C 0,6 C 0,0 C 94 % 15 lf 1023,5 hPa 0,0 l/m 0 min 2 min 31 W/m 20,3 km/h (4 Bft) 95,74 %
03.12.2017 10:32 0,7 C 0,6 C 0,0 C 94 % 15 lf 1023,6 hPa 0,0 l/m 0 min 2 min 26 W/m 24,8 km/h (4 Bft) 95,74 %
03.12.2017 10:34 0,7 C 0,6 C 0,0 C 94 % 15 lf 1023,6 hPa 0,0 l/m 0 min 2 min 24 W/m 18,0 km/h (3 Bft) 95,74 %
03.12.2017 10:36 0,7 C 0,6 C -0,6 C 94 % 15 lf 1023,6 hPa 0,0 l/m 0 min 2 min 22 W/m 20,3 km/h (4 Bft) 93,62 %
03.12.2017 10:38 0,7 C 0,6 C -0,6 C 94 % 15 lf 1023,5 hPa 0,0 l/m 0 min 2 min 20 W/m 13,5 km/h (3 Bft) 93,48 %
03.12.2017 10:40 0,7 C 0,6 C -0,6 C 94 % 15 lf 1023,6 hPa 0,0 l/m 0 min 2 min 19 W/m 18,0 km/h (3 Bft) 91,49 %
03.12.2017 10:42 0,7 C 0,6 C -0,6 C 94 % 15 lf 1023,5 hPa 0,0 l/m 0 min 2 min 20 W/m 20,3 km/h (4 Bft) 97,87 %
03.12.2017 10:44 0,7 C 0,6 C -0,6 C 94 % 15 lf 1023,5 hPa 0,0 l/m 0 min 2 min 21 W/m 13,5 km/h (3 Bft) 97,87 %
03.12.2017 10:46 0,7 C 0,6 C -0,6 C 94 % 15 lf 1023,5 hPa 0,0 l/m 0 min 2 min 21 W/m 18,0 km/h (3 Bft) 95,74 %
03.12.2017 10:48 0,7 C 0,6 C -0,6 C 94 % 15 lf 1023,5 hPa 0,0 l/m 0 min 2 min 24 W/m 24,8 km/h (4 Bft) 97,83 %
03.12.2017 10:50 0,7 C 0,6 C 0,0 C 94 % 15 lf 1023,5 hPa 0,0 l/m 0 min 2 min 28 W/m 22,5 km/h (4 Bft) 91,49 %
03.12.2017 10:52 0,7 C 0,6 C 0,0 C 94 % 15 lf 1023,5 hPa 0,0 l/m 0 min 0 min 30 W/m 15,8 km/h (3 Bft) 91,49 %
03.12.2017 10:54 0,7 C 0,6 C 0,0 C 94 % 15 lf 1023,6 hPa 0,0 l/m 0 min 2 min 28 W/m 13,5 km/h (3 Bft) 95,74 %
03.12.2017 10:56 0,8 C 0,6 C 0,0 C 94 % 15 lf 1023,5 hPa 0,0 l/m 0 min 2 min 25 W/m 15,8 km/h (3 Bft) 95,74 %
03.12.2017 10:58 0,8 C 0,6 C 0,0 C 94 % 15 lf 1023,5 hPa 0,0 l/m 0 min 2 min 25 W/m 15,8 km/h (3 Bft) 93,62 %
03.12.2017 11:00 0,8 C 0,6 C 0,0 C 94 % 15 lf 1023,6 hPa 0,0 l/m 0 min 2 min 26 W/m 13,5 km/h (3 Bft) 95,65 %
03.12.2017 11:02 0,8 C 0,6 C 0,0 C 94 % 15 lf 1023,6 hPa 0,0 l/m 0 min 2 min 24 W/m 15,8 km/h (3 Bft) 95,74 %
03.12.2017 11:04 0,8 C 0,6 C 0,0 C 94 % 15 lf 1023,5 hPa 0,0 l/m 0 min 0 min 21 W/m 15,8 km/h (3 Bft) 95,74 %
03.12.2017 11:06 0,8 C 0,6 C 0,0 C 94 % 15 lf 1023,5 hPa 0,0 l/m 0 min 2 min 20 W/m 15,8 km/h (3 Bft) 97,87 %
03.12.2017 11:10 0,8 C 0,6 C 0,0 C 94 % 15 lf 1023,5 hPa 0,0 l/m 0 min 0 min 22 W/m 15,8 km/h (3 Bft) 94,05 %
03.12.2017 11:12 0,8 C 0,6 C 0,0 C 94 % 15 lf 1023,5 hPa 0,0 l/m 0 min 2 min 25 W/m 20,3 km/h (4 Bft) 97,87 %
03.12.2017 11:14 0,8 C 0,6 C 0,0 C 94 % 15 lf 1023,5 hPa 0,0 l/m 0 min 2 min 25 W/m 15,8 km/h (3 Bft) 97,87 %
03.12.2017 11:16 0,8 C 0,6 C 0,0 C 94 % 15 lf 1023,5 hPa 0,0 l/m 0 min 2 min 23 W/m 13,5 km/h (3 Bft) 93,48 %
03.12.2017 11:18 0,8 C 0,6 C 0,0 C 94 % 15 lf 1023,5 hPa 0,0 l/m 0 min 0 min 22 W/m 15,8 km/h (3 Bft) 95,74 %
03.12.2017 11:20 0,8 C 0,6 C 0,0 C 94 % 15 lf 1023,5 hPa 0,0 l/m 0 min 2 min 19 W/m 18,0 km/h (3 Bft) 92,73 %
03.12.2017 11:22 0,8 C 0,6 C 0,0 C 95 % 15 lf 1023,5 hPa 0,0 l/m 0 min 2 min 18 W/m 22,5 km/h (4 Bft) 97,87 %
03.12.2017 11:24 0,8 C 0,6 C 0,0 C 95 % 15 lf 1023,5 hPa 0,0 l/m 0 min 0 min 16 W/m 15,8 km/h (3 Bft) 95,65 %
03.12.2017 11:26 0,8 C 0,6 C 0,0 C 95 % 15 lf 1023,5 hPa 0,0 l/m 0 min 0 min 16 W/m 22,5 km/h (4 Bft) 97,87 %
03.12.2017 11:28 0,8 C 0,6 C 0,0 C 95 % 15 lf 1023,5 hPa 0,0 l/m 0 min 2 min 19 W/m 15,8 km/h (3 Bft) 97,87 %
03.12.2017 11:30 0,8 C 0,6 C 0,0 C 95 % 15 lf 1023,5 hPa 0,0 l/m 0 min 0 min 22 W/m 22,5 km/h (4 Bft) 91,49 %
03.12.2017 11:32 0,8 C 0,6 C 0,0 C 95 % 15 lf 1023,5 hPa 0,0 l/m 0 min 0 min 25 W/m 22,5 km/h (4 Bft) 97,87 %
03.12.2017 11:34 0,8 C 0,6 C 0,0 C 95 % 15 lf 1023,5 hPa 0,0 l/m 0 min 0 min 24 W/m 20,3 km/h (4 Bft) 100,00 %
03.12.2017 11:36 0,8 C 0,6 C 0,0 C 95 % 15 lf 1023,4 hPa 0,0 l/m 0 min 0 min 23 W/m 22,5 km/h (4 Bft) 97,83 %
03.12.2017 11:38 0,8 C 0,6 C 0,0 C 95 % 15 lf 1023,4 hPa 0,0 l/m 0 min 2 min 25 W/m 20,3 km/h (4 Bft) 100,00 %
03.12.2017 11:40 0,8 C 0,6 C 0,0 C 95 % 15 lf 1023,4 hPa 0,0 l/m 0 min 2 min 28 W/m 18,0 km/h (3 Bft) 100,00 %
03.12.2017 11:42 0,8 C 0,6 C 0,0 C 95 % 15 lf 1023,4 hPa 0,0 l/m 0 min 2 min 30 W/m 22,5 km/h (4 Bft) 97,87 %
03.12.2017 11:44 0,8 C 0,6 C 0,0 C 95 % 15 lf 1023,4 hPa 0,0 l/m 0 min 2 min 34 W/m 24,8 km/h (4 Bft) 100,00 %
03.12.2017 11:46 0,8 C 0,6 C 0,0 C 95 % 15 lf 1023,4 hPa 0,0 l/m 0 min 2 min 34 W/m 22,5 km/h (4 Bft) 93,62 %
03.12.2017 11:48 0,8 C 0,6 C 0,0 C 95 % 15 lf 1023,5 hPa 0,0 l/m 0 min 2 min 32 W/m 18,0 km/h (3 Bft) 100,00 %
03.12.2017 11:50 0,8 C 0,6 C 0,0 C 95 % 15 lf 1023,4 hPa 0,0 l/m 0 min 2 min 34 W/m 15,8 km/h (3 Bft) 97,87 %
03.12.2017 11:52 0,8 C 0,6 C 0,0 C 95 % 15 lf 1023,4 hPa 0,0 l/m 0 min 2 min 38 W/m 29,3 km/h (5 Bft) 97,87 %
03.12.2017 11:54 0,8 C 0,6 C 0,0 C 95 % 15 lf 1023,4 hPa 0,0 l/m 0 min 2 min 44 W/m 20,3 km/h (4 Bft) 95,74 %
03.12.2017 11:56 0,8 C 0,6 C 0,0 C 95 % 15 lf 1023,3 hPa 0,0 l/m 0 min 2 min 51 W/m 20,3 km/h (4 Bft) 95,74 %
03.12.2017 11:58 0,8 C 0,6 C 0,0 C 95 % 15 lf 1023,3 hPa 0,0 l/m 0 min 2 min 47 W/m 18,0 km/h (3 Bft) 100,00 %
03.12.2017 12:00 0,9 C 0,6 C 0,0 C 95 % 15 lf 1023,4 hPa 0,0 l/m 0 min 2 min 41 W/m 24,8 km/h (4 Bft) 97,83 %
03.12.2017 12:02 0,9 C 0,6 C 0,0 C 95 % 15 lf 1023,3 hPa 0,0 l/m 0 min 2 min 36 W/m 20,3 km/h (4 Bft) 93,62 %
03.12.2017 12:04 0,9 C 0,6 C 0,0 C 95 % 15 lf 1023,3 hPa 0,0 l/m 0 min 0 min 33 W/m 18,0 km/h (3 Bft) 95,74 %
03.12.2017 12:06 0,9 C 0,6 C 0,0 C 95 % 15 lf 1023,3 hPa 0,0 l/m 0 min 2 min 33 W/m 22,5 km/h (4 Bft) 95,74 %
03.12.2017 12:10 0,9 C 0,6 C 0,0 C 95 % 15 lf 1023,2 hPa 0,0 l/m 0 min 0 min 32 W/m 20,3 km/h (4 Bft) 94,25 %
03.12.2017 12:12 0,9 C 0,6 C 0,0 C 95 % 15 lf 1023,2 hPa 0,0 l/m 0 min 0 min 34 W/m 24,8 km/h (4 Bft) 93,62 %
03.12.2017 12:14 0,9 C 0,6 C 0,0 C 95 % 15 lf 1023,3 hPa 0,0 l/m 0 min 0 min 35 W/m 22,5 km/h (4 Bft) 93,48 %
03.12.2017 12:16 0,9 C 0,6 C 0,0 C 95 % 15 lf 1023,2 hPa 0,0 l/m 0 min 0 min 33 W/m 24,8 km/h (4 Bft) 93,62 %
03.12.2017 12:18 0,9 C 0,6 C 0,0 C 95 % 15 lf 1023,1 hPa 0,0 l/m 0 min 0 min 34 W/m 15,8 km/h (3 Bft) 91,49 %
03.12.2017 12:20 0,9 C 0,6 C 0,0 C 95 % 15 lf 1023,1 hPa 0,0 l/m 0 min 0 min 35 W/m 24,8 km/h (4 Bft) 95,74 %
03.12.2017 12:22 0,9 C 0,6 C 0,0 C 95 % 15 lf 1023,1 hPa 0,0 l/m 0 min 0 min 35 W/m 18,0 km/h (3 Bft) 93,62 %
03.12.2017 12:24 0,9 C 0,6 C 0,0 C 95 % 15 lf 1023,0 hPa 0,0 l/m 0 min 0 min 33 W/m 18,0 km/h (3 Bft) 93,62 %
03.12.2017 12:26 0,9 C 0,6 C 0,0 C 95 % 15 lf 1023,0 hPa 0,0 l/m 0 min 0 min 31 W/m 22,5 km/h (4 Bft) 95,65 %
03.12.2017 12:28 0,9 C 0,6 C 0,0 C 95 % 15 lf 1023,0 hPa 0,0 l/m 0 min 0 min 33 W/m 22,5 km/h (4 Bft) 93,62 %
03.12.2017 12:30 0,9 C 0,6 C 0,0 C 95 % 15 lf 1023,0 hPa 0,0 l/m 0 min 2 min 35 W/m 29,3 km/h (5 Bft) 91,49 %
03.12.2017 12:32 0,9 C 0,6 C 0,0 C 95 % 15 lf 1023,0 hPa 0,0 l/m 0 min 0 min 34 W/m 20,3 km/h (4 Bft) 95,74 %
03.12.2017 12:34 0,9 C 0,6 C 0,0 C 95 % 15 lf 1023,0 hPa 0,0 l/m 0 min 0 min 33 W/m 20,3 km/h (4 Bft) 97,87 %
03.12.2017 12:36 0,9 C 0,6 C 0,0 C 95 % 15 lf 1023,0 hPa 0,0 l/m 0 min 0 min 31 W/m 20,3 km/h (4 Bft) 93,62 %
03.12.2017 12:38 0,9 C 0,6 C 0,0 C 95 % 15 lf 1023,1 hPa 0,0 l/m 0 min 0 min 30 W/m 20,3 km/h (4 Bft) 95,65 %
03.12.2017 12:40 0,9 C 0,6 C 0,0 C 95 % 15 lf 1023,0 hPa 0,0 l/m 0 min 0 min 29 W/m 24,8 km/h (4 Bft) 97,87 %
03.12.2017 12:42 0,9 C 0,6 C 0,0 C 95 % 15 lf 1023,0 hPa 0,0 l/m 0 min 2 min 30 W/m 22,5 km/h (4 Bft) 89,36 %
03.12.2017 12:44 0,9 C 0,6 C 0,0 C 95 % 15 lf 1023,0 hPa 0,0 l/m 0 min 2 min 30 W/m 20,3 km/h (4 Bft) 97,87 %
03.12.2017 12:46 0,9 C 0,6 C 0,0 C 95 % 15 lf 1023,0 hPa 0,0 l/m 0 min 2 min 27 W/m 24,8 km/h (4 Bft) 97,87 %
03.12.2017 12:48 0,9 C 0,6 C 0,0 C 95 % 15 lf 1023,0 hPa 0,0 l/m 0 min 0 min 27 W/m 31,5 km/h (5 Bft) 97,87 %
03.12.2017 12:50 1,0 C 0,6 C 0,0 C 95 % 15 lf 1022,9 hPa 0,0 l/m 0 min 0 min 26 W/m 20,3 km/h (4 Bft) 97,83 %
03.12.2017 12:52 1,0 C 0,6 C 0,0 C 95 % 15 lf 1023,0 hPa 0,0 l/m 0 min 2 min 25 W/m 22,5 km/h (4 Bft) 95,92 %
03.12.2017 12:54 1,0 C 0,6 C 0,0 C 95 % 15 lf 1023,0 hPa 0,0 l/m 0 min 2 min 21 W/m 20,3 km/h (4 Bft) 100,00 %
03.12.2017 12:56 1,0 C 0,6 C 0,0 C 95 % 15 lf 1022,9 hPa 0,0 l/m 0 min 0 min 23 W/m 24,8 km/h (4 Bft) 100,00 %
03.12.2017 12:58 1,0 C 0,6 C 0,0 C 96 % 15 lf 1022,9 hPa 0,0 l/m 0 min 0 min 25 W/m 24,8 km/h (4 Bft) 97,83 %
03.12.2017 13:00 1,0 C 0,6 C 0,0 C 96 % 15 lf 1022,9 hPa 0,0 l/m 0 min 2 min 26 W/m 29,3 km/h (5 Bft) 100,00 %
03.12.2017 13:02 1,0 C 0,6 C 0,0 C 96 % 15 lf 1022,9 hPa 0,0 l/m 0 min 0 min 25 W/m 29,3 km/h (5 Bft) 100,00 %
03.12.2017 13:04 1,0 C 0,6 C 0,0 C 96 % 15 lf 1022,9 hPa 0,0 l/m 0 min 0 min 25 W/m 27,0 km/h (4 Bft) 100,00 %
03.12.2017 13:06 1,0 C 0,6 C 0,0 C 96 % 15 lf 1022,9 hPa 0,0 l/m 0 min 0 min 25 W/m 24,8 km/h (4 Bft) 97,87 %
03.12.2017 13:10 1,1 C 1,1 C 0,0 C 96 % 15 lf 1022,9 hPa 0,0 l/m 0 min 0 min 28 W/m 27,0 km/h (4 Bft) 100,00 %
03.12.2017 13:12 1,1 C 1,1 C 0,0 C 96 % 15 lf 1022,8 hPa 0,0 l/m 0 min 0 min 32 W/m 20,3 km/h (4 Bft) 97,83 %
03.12.2017 13:14 1,1 C 1,1 C 0,6 C 96 % 15 lf 1022,8 hPa 0,0 l/m 0 min 0 min 34 W/m 22,5 km/h (4 Bft) 100,00 %
03.12.2017 13:16 1,1 C 1,1 C 0,6 C 96 % 15 lf 1022,8 hPa 0,0 l/m 0 min 0 min 35 W/m 18,0 km/h (3 Bft) 97,87 %
03.12.2017 13:18 1,1 C 1,1 C 0,6 C 96 % 15 lf 1022,7 hPa 0,0 l/m 0 min 0 min 36 W/m 15,8 km/h (3 Bft) 100,00 %
03.12.2017 13:20 1,1 C 1,1 C 0,6 C 96 % 15 lf 1022,7 hPa 0,0 l/m 0 min 0 min 37 W/m 20,3 km/h (4 Bft) 95,74 %
03.12.2017 13:22 1,1 C 1,1 C 0,6 C 96 % 15 lf 1022,6 hPa 0,0 l/m 0 min 0 min 37 W/m 24,8 km/h (4 Bft) 100,00 %
03.12.2017 13:24 1,1 C 1,1 C 0,6 C 96 % 15 lf 1022,7 hPa 0,0 l/m 0 min 2 min 38 W/m 27,0 km/h (4 Bft) 97,83 %
03.12.2017 13:26 1,1 C 1,1 C 0,6 C 96 % 15 lf 1022,6 hPa 0,0 l/m 0 min 2 min 35 W/m 24,8 km/h (4 Bft) 93,62 %
03.12.2017 13:28 1,1 C 1,1 C 0,6 C 96 % 15 lf 1022,6 hPa 0,0 l/m 0 min 0 min 31 W/m 22,5 km/h (4 Bft) 95,74 %
03.12.2017 13:30 1,1 C 1,1 C 0,6 C 96 % 15 lf 1022,6 hPa 0,0 l/m 0 min 2 min 31 W/m 29,3 km/h (5 Bft) 97,87 %
03.12.2017 13:32 1,1 C 1,1 C 0,6 C 96 % 15 lf 1022,5 hPa 0,0 l/m 0 min 0 min 32 W/m 22,5 km/h (4 Bft) 95,74 %
03.12.2017 13:34 1,1 C 1,1 C 0,6 C 96 % 15 lf 1022,6 hPa 0,0 l/m 0 min 2 min 29 W/m 24,8 km/h (4 Bft) 97,87 %
03.12.2017 13:36 1,1 C 1,1 C 0,6 C 96 % 15 lf 1022,6 hPa 0,0 l/m 0 min 0 min 30 W/m 27,0 km/h (4 Bft) 93,48 %
03.12.2017 13:38 1,1 C 1,1 C 0,6 C 96 % 15 lf 1022,5 hPa 0,2 l/m 0 min 0 min 34 W/m 27,0 km/h (4 Bft) 95,74 %
03.12.2017 13:40 1,2 C 1,1 C 0,6 C 96 % 15 lf 1022,5 hPa 0,0 l/m 0 min 2 min 39 W/m 33,8 km/h (5 Bft) 97,87 %
03.12.2017 13:42 1,2 C 1,1 C 0,6 C 96 % 15 lf 1022,4 hPa 0,0 l/m 0 min 0 min 43 W/m 22,5 km/h (4 Bft) 93,62 %
03.12.2017 13:44 1,2 C 1,1 C 0,6 C 96 % 15 lf 1022,5 hPa 0,0 l/m 0 min 0 min 35 W/m 24,8 km/h (4 Bft) 95,74 %
03.12.2017 13:46 1,2 C 1,1 C 0,6 C 96 % 15 lf 1022,4 hPa 0,0 l/m 0 min 0 min 32 W/m 24,8 km/h (4 Bft) 97,87 %
03.12.2017 13:48 1,2 C 1,1 C 0,6 C 96 % 15 lf 1022,4 hPa 0,0 l/m 0 min 2 min 27 W/m 22,5 km/h (4 Bft) 97,83 %
03.12.2017 13:50 1,2 C 1,1 C 0,6 C 96 % 15 lf 1022,4 hPa 0,0 l/m 0 min 0 min 26 W/m 27,0 km/h (4 Bft) 95,74 %
03.12.2017 13:52 1,2 C 1,1 C 0,6 C 96 % 15 lf 1022,4 hPa 0,0 l/m 0 min 0 min 25 W/m 24,8 km/h (4 Bft) 97,87 %
03.12.2017 13:54 1,2 C 1,1 C 0,6 C 96 % 15 lf 1022,3 hPa 0,2 l/m 0 min 0 min 27 W/m 24,8 km/h (4 Bft) 93,62 %
03.12.2017 13:56 1,2 C 1,1 C 0,6 C 96 % 15 lf 1022,3 hPa 0,0 l/m 0 min 0 min 31 W/m 27,0 km/h (4 Bft) 95,74 %
03.12.2017 13:58 1,2 C 1,1 C 0,6 C 96 % 15 lf 1022,2 hPa 0,0 l/m 0 min 0 min 34 W/m 22,5 km/h (4 Bft) 93,48 %
03.12.2017 14:00 1,2 C 1,1 C 0,6 C 96 % 15 lf 1022,2 hPa 0,0 l/m 0 min 0 min 36 W/m 29,3 km/h (5 Bft) 95,74 %
03.12.2017 14:02 1,3 C 1,1 C 0,6 C 96 % 15 lf 1022,2 hPa 0,0 l/m 0 min 2 min 34 W/m 24,8 km/h (4 Bft) 93,62 %
03.12.2017 14:04 1,3 C 1,1 C 0,6 C 96 % 15 lf 1022,2 hPa 0,2 l/m 0 min 2 min 35 W/m 24,8 km/h (4 Bft) 91,49 %
03.12.2017 14:06 1,3 C 1,1 C 0,6 C 96 % 15 lf 1022,1 hPa 0,0 l/m 0 min 2 min 33 W/m 33,8 km/h (5 Bft) 91,49 %
03.12.2017 14:10 1,3 C 1,1 C 0,6 C 96 % 15 lf 1022,1 hPa 0,0 l/m 0 min 4 min 32 W/m 24,8 km/h (4 Bft) 94,44 %
03.12.2017 14:12 1,3 C 1,1 C 0,6 C 96 % 15 lf 1022,1 hPa 0,0 l/m 0 min 2 min 31 W/m 27,0 km/h (4 Bft) 95,74 %
03.12.2017 14:14 1,3 C 1,1 C 0,6 C 96 % 15 lf 1022,1 hPa 0,2 l/m 0 min 2 min 29 W/m 24,8 km/h (4 Bft) 93,62 %
03.12.2017 14:16 1,3 C 1,1 C 0,6 C 97 % 15 lf 1022,0 hPa 0,0 l/m 0 min 0 min 31 W/m 29,3 km/h (5 Bft) 93,62 %
03.12.2017 14:18 1,3 C 1,1 C 0,6 C 97 % 15 lf 1022,1 hPa 0,0 l/m 0 min 2 min 27 W/m 24,8 km/h (4 Bft) 91,49 %
03.12.2017 14:20 1,4 C 1,1 C 0,6 C 97 % 15 lf 1022,1 hPa 0,0 l/m 0 min 2 min 27 W/m 27,0 km/h (4 Bft) 91,38 %
03.12.2017 14:22 1,4 C 1,1 C 0,6 C 97 % 15 lf 1022,1 hPa 0,2 l/m 0 min 2 min 26 W/m 24,8 km/h (4 Bft) 97,14 %
03.12.2017 14:24 1,4 C 1,1 C 0,6 C 97 % 15 lf 1022,1 hPa 0,0 l/m 0 min 2 min 31 W/m 29,3 km/h (5 Bft) 95,74 %
03.12.2017 14:26 1,4 C 1,1 C 0,6 C 97 % 15 lf 1022,1 hPa 0,0 l/m 0 min 2 min 33 W/m 29,3 km/h (5 Bft) 95,74 %
03.12.2017 14:28 1,4 C 1,1 C 0,6 C 97 % 15 lf 1022,1 hPa 0,0 l/m 0 min 2 min 31 W/m 27,0 km/h (4 Bft) 97,87 %
03.12.2017 14:30 1,4 C 1,1 C 0,6 C 97 % 15 lf 1022,0 hPa 0,0 l/m 0 min 2 min 29 W/m 29,3 km/h (5 Bft) 97,87 %
03.12.2017 14:32 1,4 C 1,1 C 0,6 C 97 % 15 lf 1022,0 hPa 0,0 l/m 0 min 2 min 28 W/m 24,8 km/h (4 Bft) 93,48 %
03.12.2017 14:34 1,4 C 1,1 C 0,6 C 97 % 15 lf 1022,0 hPa 0,0 l/m 0 min 2 min 23 W/m 24,8 km/h (4 Bft) 95,74 %
03.12.2017 14:36 1,4 C 1,1 C 0,6 C 97 % 15 lf 1022,0 hPa 0,0 l/m 0 min 2 min 20 W/m 22,5 km/h (4 Bft) 93,62 %
03.12.2017 14:38 1,4 C 1,1 C 0,6 C 97 % 15 lf 1022,0 hPa 0,0 l/m 0 min 2 min 20 W/m 20,3 km/h (4 Bft) 95,74 %
03.12.2017 14:40 1,4 C 1,1 C 0,6 C 97 % 15 lf 1022,0 hPa 0,0 l/m 0 min 2 min 20 W/m 27,0 km/h (4 Bft) 97,87 %
03.12.2017 14:42 1,4 C 1,1 C 0,6 C 97 % 15 lf 1022,0 hPa 0,0 l/m 0 min 2 min 20 W/m 24,8 km/h (4 Bft) 95,74 %
03.12.2017 14:44 1,4 C 1,1 C 0,6 C 97 % 15 lf 1022,0 hPa 0,0 l/m 0 min 2 min 18 W/m 24,8 km/h (4 Bft) 97,83 %
03.12.2017 14:46 1,5 C 1,1 C 0,6 C 97 % 15 lf 1022,1 hPa 0,0 l/m 0 min 2 min 17 W/m 24,8 km/h (4 Bft) 97,87 %
03.12.2017 14:48 1,5 C 1,1 C 0,6 C 97 % 15 lf 1022,1 hPa 0,2 l/m 0 min 2 min 17 W/m 29,3 km/h (5 Bft) 97,87 %
03.12.2017 14:50 1,5 C 1,1 C 0,6 C 97 % 15 lf 1022,1 hPa 0,0 l/m 0 min 2 min 16 W/m 31,5 km/h (5 Bft) 96,61 %
03.12.2017 14:52 1,5 C 1,1 C 0,6 C 97 % 15 lf 1022,1 hPa 0,0 l/m 0 min 2 min 16 W/m 22,5 km/h (4 Bft) 97,14 %
03.12.2017 14:54 1,5 C 1,1 C 0,6 C 97 % 15 lf 1022,1 hPa 0,0 l/m 0 min 2 min 16 W/m 31,5 km/h (5 Bft) 97,87 %
03.12.2017 14:56 1,5 C 1,1 C 0,6 C 97 % 15 lf 1022,2 hPa 0,0 l/m 0 min 2 min 17 W/m 31,5 km/h (5 Bft) 97,83 %
03.12.2017 14:58 1,5 C 1,1 C 0,6 C 97 % 15 lf 1022,2 hPa 0,0 l/m 0 min 2 min 16 W/m 31,5 km/h (5 Bft) 93,62 %
03.12.2017 15:00 1,5 C 1,7 C 0,6 C 97 % 15 lf 1022,2 hPa 0,0 l/m 0 min 2 min 18 W/m 18,0 km/h (3 Bft) 95,74 %
03.12.2017 15:02 1,5 C 1,7 C 0,6 C 97 % 15 lf 1022,1 hPa 0,0 l/m 0 min 2 min 18 W/m 24,8 km/h (4 Bft) 95,74 %
03.12.2017 15:04 1,5 C 1,1 C 0,6 C 97 % 15 lf 1022,1 hPa 0,0 l/m 0 min 2 min 15 W/m 29,3 km/h (5 Bft) 95,74 %
03.12.2017 15:06 1,6 C 1,1 C 0,6 C 97 % 15 lf 1022,1 hPa 0,0 l/m 0 min 2 min 13 W/m 22,5 km/h (4 Bft) 91,49 %
03.12.2017 15:10 1,6 C 1,1 C 0,6 C 97 % 15 lf 1022,2 hPa 0,0 l/m 0 min 4 min 12 W/m 29,3 km/h (5 Bft) 96,88 %
03.12.2017 15:12 1,6 C 1,1 C 0,6 C 97 % 15 lf 1022,1 hPa 0,0 l/m 0 min 2 min 12 W/m 22,5 km/h (4 Bft) 93,62 %
03.12.2017 15:14 1,6 C 1,1 C 0,6 C 97 % 15 lf 1022,2 hPa 0,0 l/m 0 min 2 min 12 W/m 29,3 km/h (5 Bft) 95,74 %
03.12.2017 15:16 1,6 C 1,1 C 0,6 C 97 % 15 lf 1022,2 hPa 0,0 l/m 0 min 2 min 11 W/m 15,8 km/h (3 Bft) 97,87 %
03.12.2017 15:18 1,6 C 1,7 C 0,6 C 97 % 15 lf 1022,2 hPa 0,0 l/m 0 min 0 min 12 W/m 15,8 km/h (3 Bft) 97,87 %
03.12.2017 15:20 1,6 C 1,7 C 0,6 C 97 % 15 lf 1022,2 hPa 0,0 l/m 0 min 0 min 13 W/m 24,8 km/h (4 Bft) 97,83 %
03.12.2017 15:22 1,6 C 1,7 C 0,6 C 97 % 15 lf 1022,2 hPa 0,0 l/m 0 min 0 min 14 W/m 22,5 km/h (4 Bft) 93,62 %
03.12.2017 15:24 1,6 C 1,7 C 0,6 C 97 % 15 lf 1022,2 hPa 0,0 l/m 0 min 0 min 17 W/m 20,3 km/h (4 Bft) 91,49 %
03.12.2017 15:26 1,6 C 1,7 C 0,6 C 97 % 15 lf 1022,2 hPa 0,0 l/m 0 min 2 min 18 W/m 20,3 km/h (4 Bft) 97,87 %
03.12.2017 15:28 1,6 C 1,7 C 0,6 C 97 % 15 lf 1022,2 hPa 0,0 l/m 0 min 2 min 18 W/m 24,8 km/h (4 Bft) 95,74 %
03.12.2017 15:30 1,6 C 1,7 C 0,6 C 97 % 15 lf 1022,2 hPa 0,0 l/m 0 min 2 min 16 W/m 27,0 km/h (4 Bft) 95,74 %
03.12.2017 15:32 1,6 C 1,7 C 0,6 C 97 % 15 lf 1022,2 hPa 0,0 l/m 0 min 2 min 14 W/m 24,8 km/h (4 Bft) 91,30 %
03.12.2017 15:34 1,6 C 1,7 C 0,6 C 97 % 15 lf 1022,2 hPa 0,0 l/m 0 min 2 min 12 W/m 22,5 km/h (4 Bft) 97,87 %
03.12.2017 15:36 1,6 C 1,7 C 0,6 C 97 % 15 lf 1022,2 hPa 0,0 l/m 0 min 2 min 10 W/m 29,3 km/h (5 Bft) 97,87 %
03.12.2017 15:38 1,6 C 1,7 C 0,6 C 97 % 15 lf 1022,2 hPa 0,2 l/m 0 min 2 min 9 W/m 27,0 km/h (4 Bft) 97,87 %
03.12.2017 15:40 1,6 C 1,7 C 0,6 C 97 % 15 lf 1022,3 hPa 0,0 l/m 0 min 2 min 7 W/m 15,8 km/h (3 Bft) 97,87 %
03.12.2017 15:42 1,6 C 1,7 C 0,6 C 97 % 15 lf 1022,2 hPa 0,0 l/m 0 min 2 min 7 W/m 29,3 km/h (5 Bft) 95,74 %
03.12.2017 15:44 1,6 C 1,7 C 0,6 C 97 % 15 lf 1022,2 hPa 0,0 l/m 0 min 2 min 7 W/m 24,8 km/h (4 Bft) 95,65 %
03.12.2017 15:46 1,6 C 1,7 C 0,6 C 97 % 15 lf 1022,2 hPa 0,0 l/m 0 min 2 min 9 W/m 22,5 km/h (4 Bft) 89,36 %
03.12.2017 15:48 1,7 C 1,7 C 0,6 C 97 % 15 lf 1022,3 hPa 0,0 l/m 0 min 0 min 8 W/m 27,0 km/h (4 Bft) 100,00 %
03.12.2017 15:50 1,7 C 1,7 C 0,6 C 97 % 15 lf 1022,3 hPa 0,0 l/m 0 min 2 min 9 W/m 29,3 km/h (5 Bft) 95,74 %
03.12.2017 15:52 1,7 C 1,7 C 0,6 C 97 % 15 lf 1022,2 hPa 0,0 l/m 0 min 2 min 9 W/m 31,5 km/h (5 Bft) 97,87 %
03.12.2017 15:54 1,7 C 1,7 C 0,6 C 97 % 15 lf 1022,3 hPa 0,0 l/m 0 min 2 min 9 W/m 27,0 km/h (4 Bft) 97,87 %
03.12.2017 15:56 1,7 C 1,7 C 0,6 C 97 % 15 lf 1022,3 hPa 0,0 l/m 0 min 2 min 9 W/m 20,3 km/h (4 Bft) 97,83 %
03.12.2017 15:58 1,7 C 1,7 C 0,6 C 97 % 15 lf 1022,3 hPa 0,0 l/m 0 min 2 min 9 W/m 20,3 km/h (4 Bft) 93,62 %
03.12.2017 16:00 1,7 C 1,7 C 0,6 C 97 % 15 lf 1022,3 hPa 0,0 l/m 0 min 2 min 9 W/m 27,0 km/h (4 Bft) 93,62 %
03.12.2017 16:02 1,7 C 1,7 C 0,6 C 97 % 15 lf 1022,4 hPa 0,0 l/m 0 min 2 min 9 W/m 24,8 km/h (4 Bft) 89,36 %
03.12.2017 16:04 1,7 C 1,7 C 0,6 C 97 % 15 lf 1022,4 hPa 0,0 l/m 0 min 2 min 9 W/m 29,3 km/h (5 Bft) 95,74 %
03.12.2017 16:06 1,7 C 1,7 C 0,6 C 97 % 15 lf 1022,4 hPa 0,0 l/m 0 min 2 min 7 W/m 27,0 km/h (4 Bft) 95,65 %
03.12.2017 16:10 1,7 C 1,7 C 0,6 C 97 % 15 lf 1022,4 hPa 0,0 l/m 0 min 4 min 6 W/m 20,3 km/h (4 Bft) 95,74 %
03.12.2017 16:12 1,7 C 1,7 C 0,6 C 97 % 15 lf 1022,5 hPa 0,0 l/m 0 min 2 min 5 W/m 24,8 km/h (4 Bft) 97,87 %
03.12.2017 16:14 1,7 C 1,7 C 0,6 C 97 % 15 lf 1022,5 hPa 0,0 l/m 0 min 0 min 5 W/m 15,8 km/h (3 Bft) 95,74 %
03.12.2017 16:16 1,7 C 1,7 C 0,6 C 97 % 15 lf 1022,6 hPa 0,0 l/m 0 min 0 min 2 W/m 18,0 km/h (3 Bft) 95,74 %
03.12.2017 16:18 1,7 C 1,7 C 0,6 C 97 % 15 lf 1022,6 hPa 0,0 l/m 0 min 0 min 0 W/m 20,3 km/h (4 Bft) 95,65 %
03.12.2017 16:20 1,7 C 1,7 C 0,6 C 97 % 15 lf 1022,6 hPa 0,0 l/m 0 min 0 min 0 W/m 15,8 km/h (3 Bft) 91,49 %
03.12.2017 16:22 1,7 C 1,7 C 0,6 C 97 % 15 lf 1022,7 hPa 0,0 l/m 0 min 0 min 0 W/m 20,3 km/h (4 Bft) 95,74 %
03.12.2017 16:24 1,7 C 1,7 C 0,6 C 97 % 15 lf 1022,7 hPa 0,0 l/m 0 min 2 min 0 W/m 24,8 km/h (4 Bft) 95,74 %
03.12.2017 16:26 1,7 C 1,7 C 0,6 C 97 % 15 lf 1022,7 hPa 0,0 l/m 0 min 2 min 0 W/m 22,5 km/h (4 Bft) 95,74 %
03.12.2017 16:28 1,7 C 1,7 C 0,6 C 97 % 15 lf 1022,7 hPa 0,0 l/m 0 min 2 min 0 W/m 15,8 km/h (3 Bft) 97,87 %
03.12.2017 16:30 1,7 C 1,7 C 0,6 C 97 % 15 lf 1022,7 hPa 0,0 l/m 0 min 2 min 0 W/m 24,8 km/h (4 Bft) 97,83 %
03.12.2017 16:32 1,7 C 1,7 C 0,6 C 97 % 15 lf 1022,7 hPa 0,0 l/m 0 min 0 min 0 W/m 18,0 km/h (3 Bft) 95,74 %
03.12.2017 16:34 1,7 C 1,7 C 0,6 C 97 % 15 lf 1022,6 hPa 0,0 l/m 0 min 0 min 0 W/m 18,0 km/h (3 Bft) 100,00 %
03.12.2017 16:36 1,7 C 1,7 C 0,6 C 97 % 15 lf 1022,7 hPa 0,0 l/m 0 min 0 min 0 W/m 22,5 km/h (4 Bft) 97,87 %
03.12.2017 16:38 1,7 C 1,7 C 0,6 C 97 % 15 lf 1022,6 hPa 0,0 l/m 0 min 0 min 0 W/m 20,3 km/h (4 Bft) 97,87 %
03.12.2017 16:40 1,7 C 1,7 C 0,6 C 97 % 15 lf 1022,7 hPa 0,0 l/m 0 min 2 min 0 W/m 15,8 km/h (3 Bft) 97,87 %
03.12.2017 16:42 1,7 C 1,7 C 0,6 C 97 % 15 lf 1022,7 hPa 0,0 l/m 0 min 2 min 0 W/m 22,5 km/h (4 Bft) 97,83 %
03.12.2017 16:44 1,7 C 1,7 C 0,6 C 97 % 15 lf 1022,7 hPa 0,0 l/m 0 min 0 min 0 W/m 22,5 km/h (4 Bft) 95,74 %
03.12.2017 16:46 1,7 C 1,7 C 0,6 C 97 % 15 lf 1022,8 hPa 0,0 l/m 0 min 2 min 0 W/m 22,5 km/h (4 Bft) 100,00 %
03.12.2017 16:48 1,8 C 1,7 C 0,6 C 97 % 15 lf 1022,8 hPa 0,0 l/m 0 min 2 min 0 W/m 22,5 km/h (4 Bft) 100,00 %
03.12.2017 16:50 1,8 C 1,7 C 0,6 C 97 % 15 lf 1022,8 hPa 0,0 l/m 0 min 2 min 0 W/m 27,0 km/h (4 Bft) 100,00 %
03.12.2017 16:52 1,8 C 1,7 C 0,6 C 97 % 15 lf 1022,9 hPa 0,0 l/m 0 min 0 min 0 W/m 22,5 km/h (4 Bft) 100,00 %
03.12.2017 16:54 1,8 C 1,7 C 0,6 C 97 % 15 lf 1022,9 hPa 0,0 l/m 0 min 2 min 0 W/m 20,3 km/h (4 Bft) 97,83 %
03.12.2017 16:56 1,8 C 1,7 C 0,6 C 97 % 15 lf 1023,0 hPa 0,0 l/m 0 min 2 min 0 W/m 13,5 km/h (3 Bft) 97,87 %
03.12.2017 16:58 1,8 C 1,7 C 0,6 C 98 % 15 lf 1022,9 hPa 0,0 l/m 0 min 0 min 0 W/m 22,5 km/h (4 Bft) 100,00 %
03.12.2017 17:00 1,8 C 1,7 C 0,6 C 98 % 15 lf 1022,9 hPa 0,0 l/m 0 min 0 min 0 W/m 15,8 km/h (3 Bft) 100,00 %
03.12.2017 17:02 1,8 C 1,7 C 0,6 C 98 % 15 lf 1022,9 hPa 0,0 l/m 0 min 0 min 0 W/m 20,3 km/h (4 Bft) 100,00 %
03.12.2017 17:04 1,8 C 1,7 C 0,6 C 98 % 15 lf 1023,0 hPa 0,0 l/m 0 min 0 min 0 W/m 15,8 km/h (3 Bft) 100,00 %
03.12.2017 17:06 1,8 C 1,7 C 0,6 C 98 % 15 lf 1022,9 hPa 0,0 l/m 0 min 0 min 0 W/m 15,8 km/h (3 Bft) 97,83 %
03.12.2017 17:10 1,8 C 1,7 C 1,1 C 98 % 15 lf 1023,0 hPa 0,0 l/m 0 min 0 min 0 W/m 15,8 km/h (3 Bft) 98,90 %
03.12.2017 17:12 1,8 C 1,7 C 1,1 C 98 % 15 lf 1023,0 hPa 0,2 l/m 0 min 0 min 0 W/m 13,5 km/h (3 Bft) 100,00 %
03.12.2017 17:14 1,8 C 1,7 C 1,1 C 98 % 15 lf 1023,0 hPa 0,0 l/m 0 min 0 min 0 W/m 18,0 km/h (3 Bft) 100,00 %
03.12.2017 17:16 1,8 C 1,7 C 1,1 C 98 % 15 lf 1023,0 hPa 0,0 l/m 0 min 0 min 0 W/m 18,0 km/h (3 Bft) 100,00 %
03.12.2017 17:18 1,8 C 1,7 C 1,1 C 98 % 15 lf 1023,0 hPa 0,0 l/m 0 min 2 min 0 W/m 18,0 km/h (3 Bft) 97,87 %
03.12.2017 17:20 1,8 C 1,7 C 1,1 C 98 % 15 lf 1023,0 hPa 0,0 l/m 0 min 2 min 0 W/m 15,8 km/h (3 Bft) 100,00 %
03.12.2017 17:22 1,8 C 1,7 C 1,1 C 97 % 15 lf 1023,1 hPa 0,0 l/m 0 min 0 min 0 W/m 11,3 km/h (2 Bft) 100,00 %
03.12.2017 17:24 1,8 C 1,7 C 1,1 C 97 % 15 lf 1023,1 hPa 0,0 l/m 0 min 0 min 0 W/m 11,3 km/h (2 Bft) 95,74 %
03.12.2017 17:26 1,8 C 1,7 C 1,1 C 97 % 15 lf 1023,1 hPa 0,0 l/m 0 min 0 min 0 W/m 15,8 km/h (3 Bft) 100,00 %
03.12.2017 17:28 1,9 C 1,7 C 1,1 C 97 % 15 lf 1023,2 hPa 0,0 l/m 0 min 0 min 0 W/m 13,5 km/h (3 Bft) 97,83 %
03.12.2017 17:30 1,9 C 1,7 C 1,1 C 97 % 15 lf 1023,2 hPa 0,0 l/m 0 min 0 min 0 W/m 13,5 km/h (3 Bft) 100,00 %
03.12.2017 17:32 1,9 C 1,7 C 1,1 C 97 % 15 lf 1023,1 hPa 0,0 l/m 0 min 0 min 0 W/m 13,5 km/h (3 Bft) 97,87 %
03.12.2017 17:34 1,9 C 1,7 C 1,1 C 97 % 15 lf 1023,2 hPa 0,0 l/m 0 min 0 min 0 W/m 18,0 km/h (3 Bft) 100,00 %
03.12.2017 17:36 1,9 C 1,7 C 1,1 C 97 % 15 lf 1023,1 hPa 0,0 l/m 0 min 0 min 0 W/m 15,8 km/h (3 Bft) 100,00 %
03.12.2017 17:38 1,9 C 1,7 C 1,1 C 97 % 15 lf 1023,2 hPa 0,0 l/m 0 min 0 min 0 W/m 15,8 km/h (3 Bft) 95,65 %
03.12.2017 17:40 1,9 C 1,7 C 1,1 C 98 % 15 lf 1023,1 hPa 0,0 l/m 0 min 0 min 0 W/m 27,0 km/h (4 Bft) 100,00 %
03.12.2017 17:42 1,9 C 1,7 C 1,1 C 98 % 15 lf 1023,2 hPa 0,0 l/m 0 min 2 min 0 W/m 20,3 km/h (4 Bft) 95,74 %
03.12.2017 17:44 1,9 C 1,7 C 1,1 C 98 % 15 lf 1023,2 hPa 0,0 l/m 0 min 2 min 0 W/m 22,5 km/h (4 Bft) 95,74 %
03.12.2017 17:46 1,9 C 1,7 C 1,1 C 98 % 15 lf 1023,2 hPa 0,0 l/m 0 min 0 min 0 W/m 13,5 km/h (3 Bft) 95,74 %
03.12.2017 17:48 1,9 C 1,7 C 1,1 C 98 % 15 lf 1023,2 hPa 0,0 l/m 0 min 2 min 0 W/m 15,8 km/h (3 Bft) 97,87 %
03.12.2017 17:50 1,9 C 1,7 C 1,1 C 98 % 15 lf 1023,2 hPa 0,0 l/m 0 min 0 min 0 W/m 24,8 km/h (4 Bft) 96,55 %
03.12.2017 17:52 1,9 C 1,7 C 1,1 C 98 % 15 lf 1023,1 hPa 0,0 l/m 0 min 0 min 0 W/m 18,0 km/h (3 Bft) 97,14 %
03.12.2017 17:54 1,9 C 1,7 C 1,1 C 98 % 15 lf 1023,2 hPa 0,0 l/m 0 min 0 min 0 W/m 18,0 km/h (3 Bft) 95,74 %
03.12.2017 17:56 1,9 C 1,7 C 1,1 C 98 % 15 lf 1023,2 hPa 0,0 l/m 0 min 2 min 0 W/m 15,8 km/h (3 Bft) 93,62 %
03.12.2017 17:58 1,9 C 1,7 C 1,1 C 98 % 15 lf 1023,3 hPa 0,0 l/m 0 min 0 min 0 W/m 18,0 km/h (3 Bft) 95,74 %
03.12.2017 18:00 2,0 C 1,7 C 1,1 C 98 % 15 lf 1023,3 hPa 0,0 l/m 0 min 2 min 0 W/m 18,0 km/h (3 Bft) 93,62 %
03.12.2017 18:02 1,9 C 1,7 C 1,1 C 98 % 15 lf 1023,4 hPa 0,0 l/m 0 min 0 min 0 W/m 15,8 km/h (3 Bft) 91,30 %
03.12.2017 18:04 2,0 C 1,7 C 1,1 C 98 % 15 lf 1023,4 hPa 0,0 l/m 0 min 2 min 0 W/m 22,5 km/h (4 Bft) 93,62 %
03.12.2017 18:06 2,0 C 1,7 C 1,1 C 98 % 15 lf 1023,4 hPa 0,0 l/m 0 min 0 min 0 W/m 11,3 km/h (2 Bft) 89,36 %
03.12.2017 18:10 2,0 C 1,7 C 1,1 C 98 % 15 lf 1023,3 hPa 0,0 l/m 0 min 0 min 0 W/m 15,8 km/h (3 Bft) 93,75 %
03.12.2017 18:12 2,0 C 1,7 C 1,1 C 98 % 15 lf 1023,3 hPa 0,0 l/m 0 min 0 min 0 W/m 18,0 km/h (3 Bft) 93,62 %
03.12.2017 18:14 2,0 C 1,7 C 1,1 C 98 % 15 lf 1023,3 hPa 0,0 l/m 0 min 0 min 0 W/m 22,5 km/h (4 Bft) 93,48 %
03.12.2017 18:16 2,0 C 1,7 C 1,1 C 98 % 15 lf 1023,4 hPa 0,0 l/m 0 min 0 min 0 W/m 15,8 km/h (3 Bft) 95,74 %
03.12.2017 18:18 2,0 C 1,7 C 1,1 C 98 % 15 lf 1023,4 hPa 0,0 l/m 0 min 0 min 0 W/m 13,5 km/h (3 Bft) 95,74 %
03.12.2017 18:20 2,1 C 2,2 C 1,1 C 98 % 15 lf 1023,4 hPa 0,0 l/m 0 min 0 min 0 W/m 15,8 km/h (3 Bft) 95,74 %
03.12.2017 18:22 2,0 C 2,2 C 1,1 C 98 % 15 lf 1023,4 hPa 0,0 l/m 0 min 0 min 0 W/m 18,0 km/h (3 Bft) 91,49 %
03.12.2017 18:24 2,1 C 2,2 C 1,1 C 98 % 15 lf 1023,4 hPa 0,0 l/m 0 min 0 min 0 W/m 18,0 km/h (3 Bft) 93,62 %
03.12.2017 18:26 2,1 C 2,2 C 1,1 C 98 % 15 lf 1023,4 hPa 0,0 l/m 0 min 0 min 0 W/m 22,5 km/h (4 Bft) 95,65 %
03.12.2017 18:28 2,1 C 2,2 C 1,1 C 98 % 15 lf 1023,4 hPa 0,0 l/m 0 min 0 min 0 W/m 18,0 km/h (3 Bft) 95,74 %
03.12.2017 18:30 2,1 C 2,2 C 1,1 C 98 % 15 lf 1023,4 hPa 0,0 l/m 0 min 0 min 0 W/m 20,3 km/h (4 Bft) 95,74 %
03.12.2017 18:32 2,1 C 2,2 C 1,1 C 98 % 15 lf 1023,4 hPa 0,0 l/m 0 min 2 min 0 W/m 27,0 km/h (4 Bft) 95,74 %
03.12.2017 18:34 2,1 C 2,2 C 1,1 C 98 % 15 lf 1023,4 hPa 0,0 l/m 0 min 2 min 0 W/m 20,3 km/h (4 Bft) 95,74 %
03.12.2017 18:36 2,1 C 2,2 C 1,1 C 98 % 15 lf 1023,4 hPa 0,0 l/m 0 min 0 min 0 W/m 24,8 km/h (4 Bft) 93,62 %
03.12.2017 18:38 2,1 C 2,2 C 1,1 C 98 % 15 lf 1023,3 hPa 0,0 l/m 0 min 0 min 0 W/m 22,5 km/h (4 Bft) 93,48 %
03.12.2017 18:40 2,1 C 2,2 C 1,1 C 98 % 15 lf 1023,5 hPa 0,0 l/m 0 min 0 min 0 W/m 24,8 km/h (4 Bft) 91,49 %
03.12.2017 18:42 2,1 C 2,2 C 1,1 C 98 % 15 lf 1023,4 hPa 0,0 l/m 0 min 2 min 0 W/m 20,3 km/h (4 Bft) 91,49 %
03.12.2017 18:44 2,1 C 2,2 C 1,1 C 98 % 15 lf 1023,4 hPa 0,0 l/m 0 min 0 min 0 W/m 20,3 km/h (4 Bft) 95,74 %
03.12.2017 18:46 2,1 C 2,2 C 1,1 C 98 % 15 lf 1023,4 hPa 0,0 l/m 0 min 0 min 0 W/m 18,0 km/h (3 Bft) 95,74 %
03.12.2017 18:48 2,1 C 2,2 C 1,1 C 98 % 15 lf 1023,4 hPa 0,0 l/m 0 min 0 min 0 W/m 15,8 km/h (3 Bft) 97,14 %
03.12.2017 18:50 2,1 C 2,2 C 1,1 C 98 % 15 lf 1023,4 hPa 0,0 l/m 0 min 0 min 0 W/m 18,0 km/h (3 Bft) 94,92 %
03.12.2017 18:52 2,1 C 2,2 C 1,1 C 98 % 15 lf 1023,4 hPa 0,0 l/m 0 min 0 min 0 W/m 20,3 km/h (4 Bft) 95,74 %
03.12.2017 18:54 2,1 C 2,2 C 1,1 C 98 % 15 lf 1023,5 hPa 0,0 l/m 0 min 2 min 0 W/m 22,5 km/h (4 Bft) 93,62 %
03.12.2017 18:56 2,1 C 2,2 C 1,1 C 98 % 15 lf 1023,4 hPa 0,0 l/m 0 min 2 min 0 W/m 27,0 km/h (4 Bft) 95,74 %
03.12.2017 18:58 2,1 C 2,2 C 1,1 C 98 % 15 lf 1023,4 hPa 0,0 l/m 0 min 2 min 0 W/m 18,0 km/h (3 Bft) 95,74 %
03.12.2017 19:00 2,1 C 2,2 C 1,1 C 98 % 15 lf 1023,4 hPa 0,0 l/m 0 min 2 min 0 W/m 20,3 km/h (4 Bft) 95,74 %
03.12.2017 19:02 2,1 C 2,2 C 1,1 C 98 % 15 lf 1023,4 hPa 0,0 l/m 0 min 0 min 0 W/m 20,3 km/h (4 Bft) 91,30 %
03.12.2017 19:04 2,1 C 2,2 C 1,1 C 98 % 15 lf 1023,4 hPa 0,0 l/m 0 min 0 min 0 W/m 13,5 km/h (3 Bft) 95,74 %
03.12.2017 19:06 2,1 C 2,2 C 1,1 C 98 % 15 lf 1023,4 hPa 0,0 l/m 0 min 0 min 0 W/m 13,5 km/h (3 Bft) 97,87 %
03.12.2017 19:10 2,1 C 2,2 C 1,1 C 98 % 15 lf 1023,5 hPa 0,0 l/m 0 min 0 min 0 W/m 18,0 km/h (3 Bft) 92,55 %
03.12.2017 19:12 2,2 C 2,2 C 1,1 C 98 % 15 lf 1023,5 hPa 0,0 l/m 0 min 0 min 0 W/m 15,8 km/h (3 Bft) 97,87 %
03.12.2017 19:14 2,2 C 2,2 C 1,1 C 98 % 15 lf 1023,5 hPa 0,0 l/m 0 min 2 min 0 W/m 18,0 km/h (3 Bft) 97,83 %
03.12.2017 19:16 2,2 C 2,2 C 1,1 C 98 % 15 lf 1023,5 hPa 0,0 l/m 0 min 2 min 0 W/m 15,8 km/h (3 Bft) 95,74 %
03.12.2017 19:18 2,2 C 2,2 C 1,1 C 98 % 15 lf 1023,5 hPa 0,0 l/m 0 min 2 min 0 W/m 20,3 km/h (4 Bft) 95,74 %
03.12.2017 19:20 2,2 C 2,2 C 1,1 C 98 % 15 lf 1023,5 hPa 0,2 l/m 0 min 2 min 0 W/m 18,0 km/h (3 Bft) 97,87 %
03.12.2017 19:22 2,2 C 2,2 C 1,1 C 98 % 15 lf 1023,5 hPa 0,0 l/m 0 min 2 min 0 W/m 20,3 km/h (4 Bft) 97,87 %
03.12.2017 19:24 2,2 C 2,2 C 1,1 C 98 % 15 lf 1023,5 hPa 0,0 l/m 0 min 2 min 0 W/m 22,5 km/h (4 Bft) 100,00 %
03.12.2017 19:26 2,2 C 2,2 C 1,1 C 98 % 15 lf 1023,5 hPa 0,0 l/m 0 min 2 min 0 W/m 20,3 km/h (4 Bft) 95,65 %
03.12.2017 19:28 2,2 C 2,2 C 1,1 C 98 % 15 lf 1023,6 hPa 0,0 l/m 0 min 2 min 0 W/m 20,3 km/h (4 Bft) 100,00 %
03.12.2017 19:30 2,2 C 2,2 C 1,1 C 98 % 15 lf 1023,6 hPa 0,0 l/m 0 min 2 min 0 W/m 20,3 km/h (4 Bft) 100,00 %
03.12.2017 19:32 2,2 C 2,2 C 1,1 C 98 % 15 lf 1023,7 hPa 0,0 l/m 0 min 2 min 0 W/m 20,3 km/h (4 Bft) 100,00 %
03.12.2017 19:34 2,2 C 2,2 C 1,1 C 98 % 15 lf 1023,8 hPa 0,0 l/m 0 min 2 min 0 W/m 18,0 km/h (3 Bft) 100,00 %
03.12.2017 19:36 2,2 C 2,2 C 1,1 C 98 % 15 lf 1023,7 hPa 0,0 l/m 0 min 2 min 0 W/m 18,0 km/h (3 Bft) 95,74 %
03.12.2017 19:38 2,2 C 2,2 C 1,1 C 98 % 15 lf 1023,7 hPa 0,0 l/m 0 min 0 min 0 W/m 20,3 km/h (4 Bft) 97,83 %
03.12.2017 19:40 2,2 C 2,2 C 1,1 C 98 % 15 lf 1023,7 hPa 0,0 l/m 0 min 0 min 0 W/m 20,3 km/h (4 Bft) 97,87 %
03.12.2017 19:42 2,2 C 2,2 C 1,1 C 98 % 15 lf 1023,8 hPa 0,0 l/m 0 min 2 min 0 W/m 15,8 km/h (3 Bft) 95,74 %
03.12.2017 19:44 2,2 C 2,2 C 1,1 C 98 % 15 lf 1023,8 hPa 0,0 l/m 0 min 0 min 0 W/m 18,0 km/h (3 Bft) 97,87 %
03.12.2017 19:46 2,2 C 2,2 C 1,1 C 98 % 15 lf 1023,8 hPa 0,0 l/m 0 min 0 min 0 W/m 18,0 km/h (3 Bft) 97,87 %
03.12.2017 19:48 2,2 C 2,2 C 1,1 C 98 % 15 lf 1023,8 hPa 0,0 l/m 0 min 0 min 0 W/m 18,0 km/h (3 Bft) 97,83 %
03.12.2017 19:50 2,2 C 2,2 C 1,1 C 98 % 15 lf 1023,7 hPa 0,0 l/m 0 min 0 min 0 W/m 18,0 km/h (3 Bft) 97,87 %
03.12.2017 19:52 2,2 C 2,2 C 1,1 C 98 % 15 lf 1023,7 hPa 0,0 l/m 0 min 0 min 0 W/m 18,0 km/h (3 Bft) 97,87 %
03.12.2017 19:54 2,2 C 2,2 C 1,1 C 98 % 15 lf 1023,6 hPa 0,0 l/m 0 min 0 min 0 W/m 20,3 km/h (4 Bft) 95,74 %
03.12.2017 19:56 2,2 C 2,2 C 1,1 C 98 % 15 lf 1023,7 hPa 0,0 l/m 0 min 0 min 0 W/m 27,0 km/h (4 Bft) 97,87 %
03.12.2017 19:58 2,2 C 2,2 C 1,1 C 98 % 15 lf 1023,5 hPa 0,0 l/m 0 min 0 min 0 W/m 27,0 km/h (4 Bft) 97,87 %
03.12.2017 20:00 2,2 C 2,2 C 1,1 C 98 % 15 lf 1023,5 hPa 0,0 l/m 0 min 0 min 0 W/m 22,5 km/h (4 Bft) 95,65 %
03.12.2017 20:02 2,2 C 2,2 C 1,1 C 98 % 15 lf 1023,6 hPa 0,0 l/m 0 min 0 min 0 W/m 20,3 km/h (4 Bft) 97,87 %
03.12.2017 20:04 2,2 C 2,2 C 1,1 C 98 % 15 lf 1023,7 hPa 0,0 l/m 0 min 0 min 0 W/m 20,3 km/h (4 Bft) 95,74 %
03.12.2017 20:06 2,2 C 2,2 C 1,1 C 98 % 15 lf 1023,8 hPa 0,0 l/m 0 min 0 min 0 W/m 20,3 km/h (4 Bft) 97,87 %
03.12.2017 20:10 2,3 C 2,2 C 1,1 C 98 % 15 lf 1023,8 hPa 0,0 l/m 0 min 0 min 0 W/m 18,0 km/h (3 Bft) 97,87 %
03.12.2017 20:12 2,2 C 2,2 C 1,1 C 98 % 15 lf 1023,9 hPa 0,0 l/m 0 min 0 min 0 W/m 13,5 km/h (3 Bft) 100,00 %
03.12.2017 20:14 2,3 C 2,2 C 1,1 C 98 % 15 lf 1023,9 hPa 0,0 l/m 0 min 0 min 0 W/m 9,0 km/h (2 Bft) 100,00 %
03.12.2017 20:16 2,3 C 2,2 C 1,1 C 98 % 15 lf 1023,9 hPa 0,0 l/m 0 min 0 min 0 W/m 22,5 km/h (4 Bft) 97,87 %
03.12.2017 20:18 2,3 C 2,2 C 1,1 C 98 % 15 lf 1023,9 hPa 0,0 l/m 0 min 0 min 0 W/m 13,5 km/h (3 Bft) 100,00 %
03.12.2017 20:20 2,3 C 2,2 C 1,1 C 98 % 15 lf 1023,9 hPa 0,0 l/m 0 min 0 min 0 W/m 18,0 km/h (3 Bft) 100,00 %
03.12.2017 20:22 2,3 C 2,2 C 1,1 C 98 % 15 lf 1024,0 hPa 0,0 l/m 0 min 0 min 0 W/m 24,8 km/h (4 Bft) 100,00 %
03.12.2017 20:24 2,3 C 2,2 C 1,1 C 98 % 15 lf 1024,0 hPa 0,0 l/m 0 min 0 min 0 W/m 22,5 km/h (4 Bft) 100,00 %
03.12.2017 20:26 2,3 C 2,2 C 1,1 C 98 % 15 lf 1023,9 hPa 0,0 l/m 0 min 0 min 0 W/m 18,0 km/h (3 Bft) 100,00 %
03.12.2017 20:28 2,3 C 2,2 C 1,1 C 98 % 15 lf 1023,9 hPa 0,0 l/m 0 min 0 min 0 W/m 22,5 km/h (4 Bft) 100,00 %
03.12.2017 20:30 2,3 C 2,2 C 1,1 C 98 % 15 lf 1023,9 hPa 0,0 l/m 0 min 0 min 0 W/m 20,3 km/h (4 Bft) 100,00 %
03.12.2017 20:32 2,3 C 2,2 C 1,1 C 98 % 15 lf 1023,9 hPa 0,0 l/m 0 min 0 min 0 W/m 22,5 km/h (4 Bft) 97,87 %
03.12.2017 20:34 2,3 C 2,2 C 1,1 C 98 % 15 lf 1023,9 hPa 0,0 l/m 0 min 0 min 0 W/m 22,5 km/h (4 Bft) 97,87 %
03.12.2017 20:36 2,3 C 2,2 C 1,1 C 98 % 15 lf 1024,0 hPa 0,0 l/m 0 min 0 min 0 W/m 20,3 km/h (4 Bft) 97,83 %
03.12.2017 20:38 2,3 C 2,2 C 1,1 C 98 % 15 lf 1024,0 hPa 0,0 l/m 0 min 0 min 0 W/m 18,0 km/h (3 Bft) 100,00 %
03.12.2017 20:40 2,3 C 2,2 C 1,1 C 98 % 15 lf 1024,0 hPa 0,0 l/m 0 min 0 min 0 W/m 18,0 km/h (3 Bft) 97,87 %
03.12.2017 20:42 2,3 C 2,2 C 1,1 C 98 % 15 lf 1024,0 hPa 0,0 l/m 0 min 0 min 0 W/m 15,8 km/h (3 Bft) 97,87 %
03.12.2017 20:44 2,3 C 2,2 C 1,1 C 98 % 15 lf 1023,9 hPa 0,0 l/m 0 min 0 min 0 W/m 15,8 km/h (3 Bft) 97,87 %
03.12.2017 20:46 2,3 C 2,2 C 1,1 C 98 % 15 lf 1024,0 hPa 0,0 l/m 0 min 0 min 0 W/m 20,3 km/h (4 Bft) 97,83 %
03.12.2017 20:48 2,3 C 2,2 C 1,1 C 98 % 15 lf 1023,9 hPa 0,0 l/m 0 min 0 min 0 W/m 22,5 km/h (4 Bft) 97,87 %
03.12.2017 20:50 2,3 C 2,2 C 1,1 C 98 % 15 lf 1023,9 hPa 0,0 l/m 0 min 0 min 0 W/m 15,8 km/h (3 Bft) 97,87 %
03.12.2017 20:52 2,3 C 2,2 C 1,7 C 98 % 15 lf 1023,9 hPa 0,0 l/m 0 min 0 min 0 W/m 20,3 km/h (4 Bft) 93,62 %
03.12.2017 20:54 2,3 C 2,2 C 1,1 C 98 % 15 lf 1023,9 hPa 0,0 l/m 0 min 0 min 0 W/m 20,3 km/h (4 Bft) 97,87 %
03.12.2017 20:56 2,3 C 2,2 C 1,7 C 98 % 15 lf 1023,9 hPa 0,0 l/m 0 min 0 min 0 W/m 20,3 km/h (4 Bft) 97,87 %
03.12.2017 20:58 2,4 C 2,2 C 1,7 C 98 % 15 lf 1024,0 hPa 0,0 l/m 0 min 0 min 0 W/m 24,8 km/h (4 Bft) 95,65 %
03.12.2017 21:00 2,4 C 2,2 C 1,7 C 98 % 15 lf 1024,0 hPa 0,0 l/m 0 min 0 min 0 W/m 18,0 km/h (3 Bft) 95,74 %
03.12.2017 21:02 2,4 C 2,2 C 1,7 C 98 % 15 lf 1024,0 hPa 0,0 l/m 0 min 0 min 0 W/m 15,8 km/h (3 Bft) 97,87 %
03.12.2017 21:04 2,4 C 2,2 C 1,7 C 98 % 15 lf 1024,0 hPa 0,0 l/m 0 min 0 min 0 W/m 20,3 km/h (4 Bft) 95,74 %
03.12.2017 21:06 2,4 C 2,2 C 1,7 C 98 % 15 lf 1024,0 hPa 0,0 l/m 0 min 0 min 0 W/m 13,5 km/h (3 Bft) 97,87 %
03.12.2017 21:10 2,4 C 2,2 C 1,7 C 98 % 15 lf 1024,1 hPa 0,0 l/m 0 min 0 min 0 W/m 27,0 km/h (4 Bft) 97,85 %
03.12.2017 21:12 2,4 C 2,2 C 1,7 C 98 % 15 lf 1024,0 hPa 0,0 l/m 0 min 0 min 0 W/m 20,3 km/h (4 Bft) 97,87 %
03.12.2017 21:14 2,4 C 2,2 C 1,7 C 98 % 15 lf 1024,0 hPa 0,0 l/m 0 min 0 min 0 W/m 22,5 km/h (4 Bft) 95,74 %
03.12.2017 21:16 2,4 C 2,2 C 1,7 C 98 % 15 lf 1024,1 hPa 0,0 l/m 0 min 0 min 0 W/m 22,5 km/h (4 Bft) 95,74 %
03.12.2017 21:18 2,4 C 2,2 C 1,7 C 98 % 15 lf 1024,1 hPa 0,0 l/m 0 min 0 min 0 W/m 20,3 km/h (4 Bft) 95,74 %
03.12.2017 21:20 2,4 C 2,2 C 1,7 C 98 % 15 lf 1024,1 hPa 0,0 l/m 0 min 0 min 0 W/m 15,8 km/h (3 Bft) 95,74 %
03.12.2017 21:22 2,4 C 2,2 C 1,7 C 98 % 15 lf 1024,1 hPa 0,0 l/m 0 min 0 min 0 W/m 22,5 km/h (4 Bft) 93,48 %
03.12.2017 21:24 2,4 C 2,2 C 1,7 C 98 % 15 lf 1024,1 hPa 0,0 l/m 0 min 0 min 0 W/m 20,3 km/h (4 Bft) 93,62 %
03.12.2017 21:26 2,4 C 2,2 C 1,7 C 98 % 15 lf 1024,0 hPa 0,0 l/m 0 min 0 min 0 W/m 20,3 km/h (4 Bft) 93,62 %
03.12.2017 21:28 2,4 C 2,2 C 1,7 C 98 % 15 lf 1024,1 hPa 0,0 l/m 0 min 0 min 0 W/m 22,5 km/h (4 Bft) 93,62 %
03.12.2017 21:30 2,4 C 2,2 C 1,7 C 98 % 15 lf 1024,1 hPa 0,0 l/m 0 min 0 min 0 W/m 20,3 km/h (4 Bft) 93,62 %
03.12.2017 21:32 2,4 C 2,2 C 1,7 C 98 % 15 lf 1024,2 hPa 0,0 l/m 0 min 0 min 0 W/m 20,3 km/h (4 Bft) 93,62 %
03.12.2017 21:34 2,4 C 2,2 C 1,7 C 98 % 15 lf 1024,2 hPa 0,0 l/m 0 min 0 min 0 W/m 20,3 km/h (4 Bft) 95,65 %
03.12.2017 21:36 2,4 C 2,2 C 1,7 C 98 % 15 lf 1024,2 hPa 0,0 l/m 0 min 0 min 0 W/m 22,5 km/h (4 Bft) 95,74 %
03.12.2017 21:38 2,4 C 2,2 C 1,7 C 98 % 15 lf 1024,2 hPa 0,0 l/m 0 min 0 min 0 W/m 18,0 km/h (3 Bft) 93,62 %
03.12.2017 21:40 2,4 C 2,2 C 1,7 C 98 % 15 lf 1024,2 hPa 0,0 l/m 0 min 0 min 0 W/m 18,0 km/h (3 Bft) 93,62 %
03.12.2017 21:42 2,4 C 2,2 C 1,7 C 98 % 15 lf 1024,2 hPa 0,0 l/m 0 min 0 min 0 W/m 18,0 km/h (3 Bft) 91,49 %
03.12.2017 21:44 2,4 C 2,2 C 1,7 C 98 % 15 lf 1024,2 hPa 0,0 l/m 0 min 0 min 0 W/m 20,3 km/h (4 Bft) 93,62 %
03.12.2017 21:46 2,4 C 2,2 C 1,7 C 98 % 15 lf 1024,2 hPa 0,0 l/m 0 min 0 min 0 W/m 20,3 km/h (4 Bft) 95,65 %
03.12.2017 21:48 2,4 C 2,2 C 1,7 C 98 % 15 lf 1024,2 hPa 0,0 l/m 0 min 0 min 0 W/m 20,3 km/h (4 Bft) 95,74 %
03.12.2017 21:50 2,4 C 2,2 C 1,7 C 98 % 15 lf 1024,3 hPa 0,0 l/m 0 min 0 min 0 W/m 24,8 km/h (4 Bft) 95,74 %
03.12.2017 21:52 2,4 C 2,2 C 1,7 C 98 % 15 lf 1024,3 hPa 0,0 l/m 0 min 0 min 0 W/m 20,3 km/h (4 Bft) 95,74 %
03.12.2017 21:54 2,5 C 2,2 C 1,7 C 98 % 15 lf 1024,3 hPa 0,0 l/m 0 min 0 min 0 W/m 15,8 km/h (3 Bft) 95,74 %
03.12.2017 21:56 2,4 C 2,2 C 1,7 C 98 % 15 lf 1024,3 hPa 0,0 l/m 0 min 0 min 0 W/m 18,0 km/h (3 Bft) 86,96 %
03.12.2017 21:58 2,4 C 2,2 C 1,7 C 98 % 15 lf 1024,3 hPa 0,0 l/m 0 min 0 min 0 W/m 20,3 km/h (4 Bft) 91,49 %
03.12.2017 22:00 2,5 C 2,2 C 1,7 C 98 % 15 lf 1024,3 hPa 0,0 l/m 0 min 0 min 0 W/m 20,3 km/h (4 Bft) 93,62 %
03.12.2017 22:02 2,5 C 2,2 C 1,7 C 98 % 15 lf 1024,3 hPa 0,0 l/m 0 min 0 min 0 W/m 22,5 km/h (4 Bft) 93,62 %
03.12.2017 22:04 2,5 C 2,2 C 1,7 C 98 % 15 lf 1024,3 hPa 0,0 l/m 0 min 0 min 0 W/m 20,3 km/h (4 Bft) 100,00 %
03.12.2017 22:06 2,5 C 2,2 C 1,7 C 98 % 15 lf 1024,4 hPa 0,0 l/m 0 min 0 min 0 W/m 20,3 km/h (4 Bft) 97,87 %
03.12.2017 22:10 2,5 C 2,2 C 1,7 C 98 % 15 lf 1024,4 hPa 0,0 l/m 0 min 0 min 0 W/m 22,5 km/h (4 Bft) 96,77 %
03.12.2017 22:12 2,5 C 2,2 C 1,7 C 98 % 15 lf 1024,5 hPa 0,0 l/m 0 min 0 min 0 W/m 20,3 km/h (4 Bft) 95,74 %
03.12.2017 22:14 2,5 C 2,2 C 1,7 C 98 % 15 lf 1024,5 hPa 0,0 l/m 0 min 0 min 0 W/m 22,5 km/h (4 Bft) 97,87 %
03.12.2017 22:16 2,6 C 2,2 C 1,7 C 98 % 15 lf 1024,5 hPa 0,0 l/m 0 min 0 min 0 W/m 20,3 km/h (4 Bft) 97,87 %
03.12.2017 22:18 2,6 C 2,2 C 1,7 C 98 % 15 lf 1024,6 hPa 0,0 l/m 0 min 0 min 0 W/m 15,8 km/h (3 Bft) 97,87 %
03.12.2017 22:20 2,6 C 2,8 C 1,7 C 98 % 15 lf 1024,6 hPa 0,0 l/m 0 min 2 min 0 W/m 20,3 km/h (4 Bft) 98,08 %
03.12.2017 22:22 2,6 C 2,8 C 1,7 C 98 % 15 lf 1024,6 hPa 0,0 l/m 0 min 2 min 0 W/m 20,3 km/h (4 Bft) 95,12 %
03.12.2017 22:24 2,6 C 2,2 C 1,7 C 98 % 15 lf 1024,7 hPa 0,0 l/m 0 min 2 min 0 W/m 18,0 km/h (3 Bft) 95,74 %
03.12.2017 22:26 2,6 C 2,2 C 1,7 C 98 % 15 lf 1024,7 hPa 0,0 l/m 0 min 0 min 0 W/m 27,0 km/h (4 Bft) 97,87 %
03.12.2017 22:28 2,6 C 2,2 C 1,7 C 98 % 15 lf 1024,7 hPa 0,0 l/m 0 min 0 min 0 W/m 24,8 km/h (4 Bft) 97,87 %
03.12.2017 22:30 2,6 C 2,2 C 1,7 C 98 % 15 lf 1024,7 hPa 0,0 l/m 0 min 0 min 0 W/m 20,3 km/h (4 Bft) 97,87 %
03.12.2017 22:32 2,6 C 2,2 C 1,7 C 98 % 15 lf 1024,8 hPa 0,0 l/m 0 min 0 min 0 W/m 18,0 km/h (3 Bft) 95,65 %
03.12.2017 22:34 2,6 C 2,8 C 1,7 C 98 % 15 lf 1024,8 hPa 0,0 l/m 0 min 0 min 0 W/m 18,0 km/h (3 Bft) 93,62 %
03.12.2017 22:36 2,6 C 2,8 C 1,7 C 98 % 15 lf 1024,8 hPa 0,0 l/m 0 min 0 min 0 W/m 20,3 km/h (4 Bft) 95,74 %
03.12.2017 22:38 2,6 C 2,2 C 1,7 C 98 % 15 lf 1024,8 hPa 0,0 l/m 0 min 0 min 0 W/m 22,5 km/h (4 Bft) 97,87 %
03.12.2017 22:40 2,6 C 2,8 C 1,7 C 98 % 15 lf 1024,8 hPa 0,0 l/m 0 min 0 min 0 W/m 20,3 km/h (4 Bft) 97,87 %
03.12.2017 22:42 2,6 C 2,8 C 1,7 C 98 % 15 lf 1024,8 hPa 0,0 l/m 0 min 2 min 0 W/m 24,8 km/h (4 Bft) 97,87 %
03.12.2017 22:44 2,6 C 2,8 C 1,7 C 98 % 15 lf 1024,8 hPa 0,0 l/m 0 min 0 min 0 W/m 18,0 km/h (3 Bft) 97,83 %
03.12.2017 22:46 2,6 C 2,8 C 1,7 C 98 % 15 lf 1024,8 hPa 0,0 l/m 0 min 0 min 0 W/m 24,8 km/h (4 Bft) 97,87 %
03.12.2017 22:48 2,6 C 2,8 C 1,7 C 98 % 15 lf 1024,8 hPa 0,0 l/m 0 min 0 min 0 W/m 18,0 km/h (3 Bft) 97,87 %
03.12.2017 22:50 2,6 C 2,8 C 1,7 C 98 % 15 lf 1024,8 hPa 0,0 l/m 0 min 0 min 0 W/m 22,5 km/h (4 Bft) 96,23 %
03.12.2017 22:52 2,6 C 2,8 C 1,7 C 98 % 15 lf 1024,8 hPa 0,0 l/m 0 min 0 min 0 W/m 13,5 km/h (3 Bft) 95,12 %
03.12.2017 22:54 2,6 C 2,8 C 1,7 C 98 % 15 lf 1024,8 hPa 0,0 l/m 0 min 0 min 0 W/m 18,0 km/h (3 Bft) 95,74 %
03.12.2017 22:56 2,6 C 2,8 C 1,7 C 98 % 15 lf 1024,8 hPa 0,0 l/m 0 min 0 min 0 W/m 22,5 km/h (4 Bft) 97,83 %
03.12.2017 22:58 2,6 C 2,8 C 1,7 C 98 % 15 lf 1024,7 hPa 0,0 l/m 0 min 0 min 0 W/m 18,0 km/h (3 Bft) 93,62 %
03.12.2017 23:00 2,6 C 2,8 C 1,7 C 98 % 15 lf 1024,8 hPa 0,0 l/m 0 min 0 min 0 W/m 24,8 km/h (4 Bft) 97,87 %
03.12.2017 23:02 2,6 C 2,8 C 1,7 C 98 % 15 lf 1024,8 hPa 0,0 l/m 0 min 0 min 0 W/m 15,8 km/h (3 Bft) 100,00 %
03.12.2017 23:04 2,6 C 2,8 C 1,7 C 99 % 15 lf 1024,8 hPa 0,0 l/m 0 min 0 min 0 W/m 18,0 km/h (3 Bft) 100,00 %
03.12.2017 23:06 2,6 C 2,8 C 1,7 C 99 % 15 lf 1024,8 hPa 0,0 l/m 0 min 0 min 0 W/m 20,3 km/h (4 Bft) 97,87 %
03.12.2017 23:10 2,6 C 2,8 C 1,7 C 99 % 15 lf 1024,8 hPa 0,0 l/m 0 min 0 min 0 W/m 20,3 km/h (4 Bft) 97,00 %
03.12.2017 23:12 2,6 C 2,8 C 1,7 C 99 % 15 lf 1024,9 hPa 0,0 l/m 0 min 0 min 0 W/m 22,5 km/h (4 Bft) 95,74 %
03.12.2017 23:14 2,6 C 2,8 C 1,7 C 99 % 15 lf 1024,9 hPa 0,0 l/m 0 min 0 min 0 W/m 22,5 km/h (4 Bft) 100,00 %
03.12.2017 23:16 2,6 C 2,8 C 1,7 C 99 % 15 lf 1025,0 hPa 0,0 l/m 0 min 0 min 0 W/m 15,8 km/h (3 Bft) 100,00 %
03.12.2017 23:18 2,7 C 2,8 C 1,7 C 99 % 15 lf 1025,1 hPa 0,0 l/m 0 min 0 min 0 W/m 20,3 km/h (4 Bft) 100,00 %
03.12.2017 23:20 2,6 C 2,8 C 1,7 C 99 % 15 lf 1025,1 hPa 0,0 l/m 0 min 0 min 0 W/m 18,0 km/h (3 Bft) 95,74 %
03.12.2017 23:22 2,7 C 2,8 C 1,7 C 99 % 15 lf 1025,2 hPa 0,0 l/m 0 min 0 min 0 W/m 18,0 km/h (3 Bft) 97,87 %
03.12.2017 23:24 2,7 C 2,8 C 1,7 C 99 % 15 lf 1025,2 hPa 0,0 l/m 0 min 0 min 0 W/m 15,8 km/h (3 Bft) 97,87 %
03.12.2017 23:26 2,7 C 2,8 C 1,7 C 99 % 15 lf 1025,1 hPa 0,0 l/m 0 min 0 min 0 W/m 20,3 km/h (4 Bft) 97,83 %
03.12.2017 23:28 2,7 C 2,8 C 1,7 C 99 % 15 lf 1025,1 hPa 0,0 l/m 0 min 0 min 0 W/m 18,0 km/h (3 Bft) 97,87 %
03.12.2017 23:30 2,7 C 2,8 C 1,7 C 99 % 15 lf 1025,1 hPa 0,0 l/m 0 min 0 min 0 W/m 18,0 km/h (3 Bft) 95,74 %
03.12.2017 23:32 2,7 C 2,8 C 1,7 C 99 % 15 lf 1025,1 hPa 0,0 l/m 0 min 0 min 0 W/m 13,5 km/h (3 Bft) 95,74 %
03.12.2017 23:34 2,7 C 2,8 C 1,7 C 99 % 15 lf 1025,2 hPa 0,0 l/m 0 min 0 min 0 W/m 15,8 km/h (3 Bft) 97,87 %
03.12.2017 23:36 2,7 C 2,8 C 1,7 C 99 % 15 lf 1025,1 hPa 0,0 l/m 0 min 0 min 0 W/m 22,5 km/h (4 Bft) 95,74 %
03.12.2017 23:38 2,7 C 2,8 C 1,7 C 99 % 15 lf 1025,2 hPa 0,0 l/m 0 min 0 min 0 W/m 15,8 km/h (3 Bft) 95,65 %
03.12.2017 23:40 2,7 C 2,8 C 1,7 C 99 % 15 lf 1025,2 hPa 0,0 l/m 0 min 2 min 0 W/m 15,8 km/h (3 Bft) 95,74 %
03.12.2017 23:42 2,7 C 2,8 C 1,7 C 99 % 15 lf 1025,1 hPa 0,0 l/m 0 min 0 min 0 W/m 18,0 km/h (3 Bft) 93,62 %
03.12.2017 23:44 2,8 C 2,8 C 1,7 C 98 % 15 lf 1025,1 hPa 0,0 l/m 0 min 0 min 0 W/m 22,5 km/h (4 Bft) 95,74 %
03.12.2017 23:46 2,8 C 2,8 C 1,7 C 98 % 15 lf 1025,1 hPa 0,0 l/m 0 min 0 min 0 W/m 13,5 km/h (3 Bft) 95,74 %
03.12.2017 23:48 2,8 C 2,8 C 1,7 C 98 % 15 lf 1025,1 hPa 0,0 l/m 0 min 0 min 0 W/m 20,3 km/h (4 Bft) 95,74 %
03.12.2017 23:50 2,8 C 2,8 C 1,7 C 98 % 15 lf 1025,1 hPa 0,0 l/m 0 min 0 min 0 W/m 22,5 km/h (4 Bft) 86,96 %
03.12.2017 23:52 2,8 C 2,8 C 1,7 C 98 % 15 lf 1025,1 hPa 0,0 l/m 0 min 0 min 0 W/m 22,5 km/h (4 Bft) 95,74 %
03.12.2017 23:54 2,8 C 2,8 C 1,7 C 99 % 15 lf 1025,1 hPa 0,0 l/m 0 min 0 min 0 W/m 22,5 km/h (4 Bft) 97,87 %
03.12.2017 23:56 2,8 C 2,8 C 1,7 C 99 % 15 lf 1025,1 hPa 0,0 l/m 0 min 0 min 0 W/m 22,5 km/h (4 Bft) 91,49 %
03.12.2017 23:58 2,8 C 2,8 C 1,7 C 99 % 15 lf 1025,1 hPa 0,0 l/m 0 min 2 min 0 W/m 27,0 km/h (4 Bft) 91,49 %
_ Min-Zeit 00:07 00:00 00:00 06:30 04:10 14:16 - - - - 00:02 00:02
Minimum _ -0,6 C -0,6 C -1,1 C 94 % 0 lf 1022,0 hPa - - - - 4,5 km/h (1 Bft) 13,33 %
_ Max-Zeit 23:44 22:20 20:52 23:04 01:44 00:02 13:38 00:00 06:10 11:56 13:40 00:07
Maximum _ 2,8 C 2,8 C 1,7 C 99 % 15 lf 1026,0 hPa 0,2 l/m 0 min 4 min 51 W/m 33,8 km/h
W (5 Bft)
100,00 %
Durchschnitt _ 1,0 C 0,9 C 0,1 C 97 % 13 lf 1023,7 hPa #1,8 l/m #0 min. #9:28 h 24 W/m 17,6 km/h (3 Bft) 96,20 %
© 2017 W. Hausmann